Wetterdaten: Sonntag, 15.01.2017
Datum Zeit Temp. Aussen Temp. o. S. +5cm Feuchte Auss BlattFeu 1 Luftdruck Regen Sonnenschein Regendauer Solar Windben Empfang
15.01.2017 00:00 -0,1 C 0,0 C -1,7 C 96 % 5 lf 1015,7 hPa 0,0 l/m 0 min 0 min 0 W/m 12,6 km/h (3 Bft) 100,00 %
15.01.2017 00:02 -0,1 C 0,0 C -1,7 C 96 % 6 lf 1015,7 hPa 0,0 l/m 0 min 0 min 0 W/m 10,5 km/h (2 Bft) 90,48 %
15.01.2017 00:04 -0,1 C 0,0 C -1,7 C 96 % 8 lf 1015,7 hPa 0,0 l/m 0 min 0 min 0 W/m 10,5 km/h (2 Bft) 95,83 %
15.01.2017 00:06 -0,1 C 0,0 C -1,7 C 96 % 10 lf 1015,7 hPa 0,0 l/m 0 min 0 min 0 W/m 16,7 km/h (3 Bft) 94,74 %
15.01.2017 00:08 -0,1 C 0,0 C -1,7 C 96 % 11 lf 1015,8 hPa 0,0 l/m 0 min 0 min 0 W/m 10,5 km/h (2 Bft) 97,87 %
15.01.2017 00:10 -0,1 C 0,0 C -1,7 C 96 % 14 lf 1015,8 hPa 0,0 l/m 0 min 0 min 0 W/m 16,7 km/h (3 Bft) 97,87 %
15.01.2017 00:12 -0,1 C 0,0 C -1,7 C 97 % 15 lf 1015,8 hPa 0,0 l/m 0 min 0 min 0 W/m 12,6 km/h (3 Bft) 93,62 %
15.01.2017 00:14 0,0 C 0,0 C -1,1 C 97 % 15 lf 1015,9 hPa 0,0 l/m 0 min 0 min 0 W/m 12,6 km/h (3 Bft) 95,65 %
15.01.2017 00:16 0,0 C 0,0 C -1,1 C 97 % 15 lf 1015,9 hPa 0,0 l/m 0 min 0 min 0 W/m 14,6 km/h (3 Bft) 93,62 %
15.01.2017 00:18 0,1 C 0,0 C -1,7 C 97 % 15 lf 1015,8 hPa 0,0 l/m 0 min 0 min 0 W/m 12,6 km/h (3 Bft) 93,62 %
15.01.2017 00:20 0,1 C 0,0 C -1,7 C 97 % 15 lf 1015,9 hPa 0,0 l/m 0 min 0 min 0 W/m 12,6 km/h (3 Bft) 91,49 %
15.01.2017 00:22 0,1 C 0,0 C -1,7 C 97 % 15 lf 1015,9 hPa 0,0 l/m 0 min 0 min 0 W/m 14,6 km/h (3 Bft) 93,62 %
15.01.2017 00:24 0,1 C 0,0 C -1,1 C 97 % 15 lf 1016,0 hPa 0,0 l/m 0 min 0 min 0 W/m 14,6 km/h (3 Bft) 93,62 %
15.01.2017 00:26 0,1 C 0,0 C -1,1 C 97 % 15 lf 1016,0 hPa 0,0 l/m 0 min 0 min 0 W/m 14,6 km/h (3 Bft) 93,62 %
15.01.2017 00:28 0,1 C 0,0 C -1,1 C 97 % 15 lf 1015,9 hPa 0,0 l/m 0 min 0 min 0 W/m 12,6 km/h (3 Bft) 93,48 %
15.01.2017 00:30 0,1 C 0,0 C -1,7 C 97 % 15 lf 1015,9 hPa 0,0 l/m 0 min 0 min 0 W/m 12,6 km/h (3 Bft) 95,74 %
15.01.2017 00:32 0,1 C 0,0 C -1,7 C 97 % 15 lf 1015,9 hPa 0,0 l/m 0 min 0 min 0 W/m 12,6 km/h (3 Bft) 91,67 %
15.01.2017 00:34 0,1 C 0,0 C -1,7 C 97 % 15 lf 1015,9 hPa 0,0 l/m 0 min 0 min 0 W/m 16,7 km/h (3 Bft) 93,62 %
15.01.2017 00:36 0,1 C 0,0 C -1,7 C 97 % 15 lf 1016,0 hPa 0,0 l/m 0 min 0 min 0 W/m 16,7 km/h (3 Bft) 90,91 %
15.01.2017 00:38 0,1 C 0,0 C -1,7 C 97 % 15 lf 1016,0 hPa 0,0 l/m 0 min 0 min 0 W/m 18,8 km/h (3 Bft) 91,49 %
15.01.2017 00:40 0,1 C 0,0 C -1,7 C 97 % 15 lf 1016,0 hPa 0,0 l/m 0 min 0 min 0 W/m 14,6 km/h (3 Bft) 95,74 %
15.01.2017 00:42 0,1 C 0,0 C -1,7 C 97 % 15 lf 1016,1 hPa 0,0 l/m 0 min 0 min 0 W/m 12,6 km/h (3 Bft) 93,62 %
15.01.2017 00:44 0,1 C 0,0 C -1,7 C 97 % 15 lf 1016,1 hPa 0,0 l/m 0 min 0 min 0 W/m 14,6 km/h (3 Bft) 91,49 %
15.01.2017 00:46 0,1 C 0,0 C -1,7 C 97 % 15 lf 1016,1 hPa 0,0 l/m 0 min 0 min 0 W/m 16,7 km/h (3 Bft) 91,30 %
15.01.2017 00:48 0,1 C 0,0 C -1,7 C 97 % 15 lf 1016,1 hPa 0,0 l/m 0 min 0 min 0 W/m 12,6 km/h (3 Bft) 89,36 %
15.01.2017 00:50 0,1 C 0,0 C -1,7 C 97 % 14 lf 1016,1 hPa 0,0 l/m 0 min 0 min 0 W/m 12,6 km/h (3 Bft) 89,36 %
15.01.2017 00:52 0,1 C 0,0 C -1,7 C 97 % 14 lf 1016,1 hPa 0,0 l/m 0 min 0 min 0 W/m 12,6 km/h (3 Bft) 89,36 %
15.01.2017 00:54 0,1 C 0,0 C -1,7 C 97 % 15 lf 1016,2 hPa 0,0 l/m 0 min 0 min 0 W/m 12,6 km/h (3 Bft) 93,62 %
15.01.2017 00:56 0,1 C 0,0 C -1,7 C 97 % 15 lf 1016,2 hPa 0,0 l/m 0 min 0 min 0 W/m 18,8 km/h (3 Bft) 95,74 %
15.01.2017 00:58 0,1 C 0,0 C -1,7 C 97 % 15 lf 1016,2 hPa 0,0 l/m 0 min 0 min 0 W/m 10,5 km/h (2 Bft) 95,65 %
15.01.2017 01:00 0,1 C 0,0 C -1,7 C 97 % 15 lf 1016,2 hPa 0,0 l/m 0 min 0 min 0 W/m 10,5 km/h (2 Bft) 93,62 %
15.01.2017 01:02 0,1 C 0,0 C -1,7 C 97 % 15 lf 1016,2 hPa 0,0 l/m 0 min 0 min 0 W/m 14,6 km/h (3 Bft) 95,83 %
15.01.2017 01:04 0,1 C 0,0 C -1,7 C 97 % 15 lf 1016,2 hPa 0,0 l/m 0 min 0 min 0 W/m 18,8 km/h (3 Bft) 100,00 %
15.01.2017 01:06 0,1 C 0,0 C -1,7 C 97 % 15 lf 1016,2 hPa 0,0 l/m 0 min 0 min 0 W/m 10,5 km/h (2 Bft) 97,87 %
15.01.2017 01:08 0,1 C 0,0 C -1,7 C 97 % 15 lf 1016,3 hPa 0,0 l/m 0 min 0 min 0 W/m 14,6 km/h (3 Bft) 93,62 %
15.01.2017 01:10 0,1 C 0,0 C -1,7 C 97 % 14 lf 1016,2 hPa 0,0 l/m 0 min 0 min 0 W/m 10,5 km/h (2 Bft) 93,62 %
15.01.2017 01:12 0,1 C 0,0 C -1,7 C 97 % 12 lf 1016,2 hPa 0,0 l/m 0 min 0 min 0 W/m 18,8 km/h (3 Bft) 95,65 %
15.01.2017 01:14 0,1 C 0,0 C -2,2 C 97 % 12 lf 1016,2 hPa 0,0 l/m 0 min 0 min 0 W/m 12,6 km/h (3 Bft) 95,74 %
15.01.2017 01:16 0,1 C 0,0 C -2,2 C 97 % 10 lf 1016,2 hPa 0,0 l/m 0 min 0 min 0 W/m 12,6 km/h (3 Bft) 95,74 %
15.01.2017 01:18 0,1 C 0,0 C -1,7 C 97 % 13 lf 1016,3 hPa 0,0 l/m 0 min 0 min 0 W/m 12,6 km/h (3 Bft) 93,62 %
15.01.2017 01:20 0,1 C 0,0 C -1,7 C 97 % 15 lf 1016,2 hPa 0,0 l/m 0 min 0 min 0 W/m 18,8 km/h (3 Bft) 95,74 %
15.01.2017 01:22 0,0 C 0,0 C -1,7 C 97 % 15 lf 1016,2 hPa 0,0 l/m 0 min 0 min 0 W/m 16,7 km/h (3 Bft) 97,87 %
15.01.2017 01:24 0,1 C 0,0 C -1,7 C 97 % 15 lf 1016,1 hPa 0,0 l/m 0 min 0 min 0 W/m 14,6 km/h (3 Bft) 95,74 %
15.01.2017 01:26 0,1 C 0,0 C -1,7 C 97 % 15 lf 1016,3 hPa 0,0 l/m 0 min 0 min 0 W/m 10,5 km/h (2 Bft) 97,83 %
15.01.2017 01:28 0,0 C 0,0 C -1,7 C 97 % 15 lf 1016,3 hPa 0,0 l/m 0 min 0 min 0 W/m 16,7 km/h (3 Bft) 95,74 %
15.01.2017 01:30 0,0 C 0,0 C -1,7 C 97 % 15 lf 1016,3 hPa 0,0 l/m 0 min 0 min 0 W/m 14,6 km/h (3 Bft) 93,62 %
15.01.2017 01:32 0,1 C 0,0 C -1,7 C 97 % 15 lf 1016,2 hPa 0,0 l/m 0 min 0 min 0 W/m 23,0 km/h (4 Bft) 93,62 %
15.01.2017 01:34 0,1 C 0,0 C -1,7 C 97 % 15 lf 1016,1 hPa 0,0 l/m 0 min 0 min 0 W/m 16,7 km/h (3 Bft) 97,87 %
15.01.2017 01:36 0,1 C 0,0 C -1,7 C 97 % 15 lf 1016,2 hPa 0,0 l/m 0 min 0 min 0 W/m 8,4 km/h (2 Bft) 98,15 %
15.01.2017 01:38 0,1 C 0,0 C -1,7 C 97 % 15 lf 1016,2 hPa 0,0 l/m 0 min 0 min 0 W/m 12,6 km/h (3 Bft) 95,74 %
15.01.2017 01:40 0,1 C 0,0 C -1,7 C 97 % 15 lf 1016,2 hPa 0,0 l/m 0 min 0 min 0 W/m 12,6 km/h (3 Bft) 95,74 %
15.01.2017 01:42 0,1 C 0,0 C -1,7 C 97 % 15 lf 1016,1 hPa 0,0 l/m 0 min 0 min 0 W/m 16,7 km/h (3 Bft) 97,87 %
15.01.2017 01:44 0,1 C 0,0 C -1,7 C 97 % 15 lf 1016,2 hPa 0,0 l/m 0 min 0 min 0 W/m 12,6 km/h (3 Bft) 97,87 %
15.01.2017 01:46 0,0 C 0,0 C -1,7 C 97 % 15 lf 1016,2 hPa 0,0 l/m 0 min 0 min 0 W/m 12,6 km/h (3 Bft) 95,65 %
15.01.2017 01:48 0,0 C 0,0 C -1,7 C 97 % 15 lf 1016,1 hPa 0,0 l/m 0 min 0 min 0 W/m 10,5 km/h (2 Bft) 95,74 %
15.01.2017 01:50 0,0 C 0,0 C -1,7 C 97 % 12 lf 1016,1 hPa 0,0 l/m 0 min 0 min 0 W/m 12,6 km/h (3 Bft) 97,87 %
15.01.2017 01:52 0,0 C 0,0 C -1,7 C 97 % 10 lf 1016,1 hPa 0,0 l/m 0 min 0 min 0 W/m 14,6 km/h (3 Bft) 100,00 %
15.01.2017 01:54 0,0 C 0,0 C -2,2 C 97 % 8 lf 1016,1 hPa 0,0 l/m 0 min 0 min 0 W/m 14,6 km/h (3 Bft) 97,87 %
15.01.2017 01:56 0,0 C 0,0 C -2,2 C 97 % 6 lf 1016,1 hPa 0,0 l/m 0 min 0 min 0 W/m 10,5 km/h (2 Bft) 97,87 %
15.01.2017 01:58 0,0 C -0,6 C -2,2 C 97 % 6 lf 1016,1 hPa 0,0 l/m 0 min 0 min 0 W/m 12,6 km/h (3 Bft) 95,65 %
15.01.2017 02:00 0,0 C -0,6 C -2,2 C 97 % 7 lf 1016,2 hPa 0,0 l/m 0 min 0 min 0 W/m 12,6 km/h (3 Bft) 95,74 %
15.01.2017 02:02 0,0 C -0,6 C -2,2 C 97 % 6 lf 1016,2 hPa 0,0 l/m 0 min 0 min 0 W/m 16,7 km/h (3 Bft) 97,22 %
15.01.2017 02:04 -0,1 C -0,6 C -2,2 C 97 % 5 lf 1016,1 hPa 0,0 l/m 0 min 0 min 0 W/m 14,6 km/h (3 Bft) 98,00 %
15.01.2017 02:06 -0,1 C -0,6 C -2,2 C 97 % 4 lf 1016,1 hPa 0,0 l/m 0 min 0 min 0 W/m 12,6 km/h (3 Bft) 100,00 %
15.01.2017 02:08 -0,1 C -0,6 C -2,2 C 97 % 4 lf 1016,1 hPa 0,0 l/m 0 min 0 min 0 W/m 10,5 km/h (2 Bft) 97,87 %
15.01.2017 02:10 -0,1 C -0,6 C -2,8 C 97 % 3 lf 1016,2 hPa 0,0 l/m 0 min 0 min 0 W/m 14,6 km/h (3 Bft) 97,83 %
15.01.2017 02:12 -0,1 C -0,6 C -2,8 C 97 % 3 lf 1016,2 hPa 0,0 l/m 0 min 0 min 0 W/m 10,5 km/h (2 Bft) 94,34 %
15.01.2017 02:14 -0,2 C -0,6 C -2,2 C 97 % 4 lf 1016,2 hPa 0,0 l/m 0 min 0 min 0 W/m 12,6 km/h (3 Bft) 90,24 %
15.01.2017 02:16 -0,2 C -0,6 C -2,8 C 97 % 3 lf 1016,3 hPa 0,0 l/m 0 min 0 min 0 W/m 10,5 km/h (2 Bft) 96,23 %
15.01.2017 02:18 -0,2 C -1,1 C -2,8 C 97 % 3 lf 1016,3 hPa 0,0 l/m 0 min 0 min 0 W/m 10,5 km/h (2 Bft) 93,62 %
15.01.2017 02:20 -0,2 C -1,1 C -2,8 C 97 % 3 lf 1016,3 hPa 0,0 l/m 0 min 0 min 0 W/m 6,3 km/h (2 Bft) 95,74 %
15.01.2017 02:22 -0,2 C -1,1 C -2,8 C 97 % 3 lf 1016,4 hPa 0,0 l/m 0 min 0 min 0 W/m 12,6 km/h (3 Bft) 91,30 %
15.01.2017 02:24 -0,2 C -1,1 C -2,8 C 97 % 3 lf 1016,4 hPa 0,0 l/m 0 min 0 min 0 W/m 8,4 km/h (2 Bft) 91,49 %
15.01.2017 02:26 -0,3 C -1,1 C -2,8 C 97 % 3 lf 1016,4 hPa 0,0 l/m 0 min 0 min 0 W/m 6,3 km/h (2 Bft) 95,74 %
15.01.2017 02:28 -0,3 C -1,1 C -2,8 C 97 % 3 lf 1016,4 hPa 0,0 l/m 0 min 0 min 0 W/m 6,3 km/h (2 Bft) 91,49 %
15.01.2017 02:30 -0,3 C -1,1 C -2,8 C 97 % 3 lf 1016,4 hPa 0,0 l/m 0 min 0 min 0 W/m 10,5 km/h (2 Bft) 93,62 %
15.01.2017 02:32 -0,3 C -1,1 C -2,8 C 97 % 3 lf 1016,5 hPa 0,0 l/m 0 min 0 min 0 W/m 12,6 km/h (3 Bft) 93,62 %
15.01.2017 02:34 -0,4 C -1,1 C -2,8 C 97 % 3 lf 1016,5 hPa 0,0 l/m 0 min 0 min 0 W/m 10,5 km/h (2 Bft) 91,49 %
15.01.2017 02:36 -0,4 C -1,1 C -2,8 C 97 % 3 lf 1016,5 hPa 0,0 l/m 0 min 0 min 0 W/m 10,5 km/h (2 Bft) 94,74 %
15.01.2017 02:38 -0,4 C -1,1 C -2,8 C 97 % 3 lf 1016,5 hPa 0,0 l/m 0 min 0 min 0 W/m 10,5 km/h (2 Bft) 95,74 %
15.01.2017 02:40 -0,4 C -1,1 C -2,8 C 97 % 3 lf 1016,5 hPa 0,0 l/m 0 min 0 min 0 W/m 10,5 km/h (2 Bft) 93,62 %
15.01.2017 02:42 -0,5 C -1,1 C -2,8 C 97 % 3 lf 1016,5 hPa 0,0 l/m 0 min 0 min 0 W/m 8,4 km/h (2 Bft) 93,62 %
15.01.2017 02:44 -0,5 C -1,1 C -2,8 C 97 % 3 lf 1016,5 hPa 0,0 l/m 0 min 0 min 0 W/m 8,4 km/h (2 Bft) 95,74 %
15.01.2017 02:46 -0,5 C -1,1 C -2,8 C 97 % 3 lf 1016,6 hPa 0,0 l/m 0 min 0 min 0 W/m 14,6 km/h (3 Bft) 95,65 %
15.01.2017 02:48 -0,6 C -1,1 C -2,8 C 97 % 3 lf 1016,5 hPa 0,0 l/m 0 min 0 min 0 W/m 6,3 km/h (2 Bft) 97,87 %
15.01.2017 02:50 -0,6 C -1,1 C -2,8 C 97 % 3 lf 1016,6 hPa 0,0 l/m 0 min 0 min 0 W/m 10,5 km/h (2 Bft) 93,62 %
15.01.2017 02:52 -0,6 C -1,1 C -2,8 C 97 % 3 lf 1016,7 hPa 0,0 l/m 0 min 0 min 0 W/m 10,5 km/h (2 Bft) 97,87 %
15.01.2017 02:54 -0,6 C -1,1 C -2,8 C 97 % 3 lf 1016,7 hPa 0,0 l/m 0 min 0 min 0 W/m 10,5 km/h (2 Bft) 97,87 %
15.01.2017 02:56 -0,6 C -1,1 C -2,8 C 97 % 3 lf 1016,7 hPa 0,0 l/m 0 min 0 min 0 W/m 12,6 km/h (3 Bft) 93,62 %
15.01.2017 02:58 -0,6 C -0,6 C -2,2 C 97 % 3 lf 1016,7 hPa 0,0 l/m 0 min 0 min 0 W/m 10,5 km/h (2 Bft) 97,83 %
15.01.2017 03:00 -0,6 C -0,6 C -2,2 C 97 % 3 lf 1016,7 hPa 0,0 l/m 0 min 0 min 0 W/m 12,6 km/h (3 Bft) 97,87 %
15.01.2017 03:02 -0,6 C -0,6 C -2,2 C 97 % 4 lf 1016,7 hPa 0,0 l/m 0 min 0 min 0 W/m 16,7 km/h (3 Bft) 100,00 %
15.01.2017 03:04 -0,6 C -0,6 C -1,7 C 97 % 5 lf 1016,7 hPa 0,0 l/m 0 min 0 min 0 W/m 12,6 km/h (3 Bft) 97,87 %
15.01.2017 03:06 -0,6 C -0,6 C -1,7 C 97 % 6 lf 1016,7 hPa 0,0 l/m 0 min 0 min 0 W/m 12,6 km/h (3 Bft) 100,00 %
15.01.2017 03:08 -0,5 C -0,6 C -1,7 C 97 % 6 lf 1016,8 hPa 0,0 l/m 0 min 0 min 0 W/m 20,9 km/h (4 Bft) 95,74 %
15.01.2017 03:10 -0,5 C -0,6 C -1,7 C 97 % 7 lf 1016,7 hPa 0,0 l/m 0 min 0 min 0 W/m 16,7 km/h (3 Bft) 97,87 %
15.01.2017 03:12 -0,4 C -0,6 C -1,7 C 97 % 7 lf 1016,7 hPa 0,0 l/m 0 min 0 min 0 W/m 12,6 km/h (3 Bft) 97,87 %
15.01.2017 03:14 -0,4 C -0,6 C -1,7 C 97 % 5 lf 1016,8 hPa 0,0 l/m 0 min 0 min 0 W/m 12,6 km/h (3 Bft) 95,74 %
15.01.2017 03:16 -0,4 C -0,6 C -2,2 C 97 % 4 lf 1016,7 hPa 0,0 l/m 0 min 0 min 0 W/m 12,6 km/h (3 Bft) 97,87 %
15.01.2017 03:18 -0,4 C -0,6 C -2,2 C 97 % 4 lf 1016,7 hPa 0,0 l/m 0 min 0 min 0 W/m 14,6 km/h (3 Bft) 97,83 %
15.01.2017 03:20 -0,4 C -0,6 C -2,2 C 97 % 3 lf 1016,8 hPa 0,0 l/m 0 min 0 min 0 W/m 14,6 km/h (3 Bft) 93,62 %
15.01.2017 03:22 -0,4 C -0,6 C -2,2 C 97 % 3 lf 1016,8 hPa 0,0 l/m 0 min 0 min 0 W/m 12,6 km/h (3 Bft) 97,87 %
15.01.2017 03:24 -0,4 C -0,6 C -2,8 C 97 % 3 lf 1016,7 hPa 0,0 l/m 0 min 0 min 0 W/m 12,6 km/h (3 Bft) 95,74 %
15.01.2017 03:26 -0,4 C -0,6 C -2,8 C 97 % 3 lf 1016,7 hPa 0,0 l/m 0 min 0 min 0 W/m 12,6 km/h (3 Bft) 97,87 %
15.01.2017 03:28 -0,4 C -1,1 C -2,8 C 97 % 3 lf 1016,8 hPa 0,0 l/m 0 min 0 min 0 W/m 10,5 km/h (2 Bft) 97,87 %
15.01.2017 03:30 -0,4 C -1,1 C -2,8 C 97 % 3 lf 1016,8 hPa 0,0 l/m 0 min 0 min 0 W/m 10,5 km/h (2 Bft) 95,65 %
15.01.2017 03:32 -0,4 C -1,1 C -2,8 C 97 % 3 lf 1016,8 hPa 0,0 l/m 0 min 0 min 0 W/m 6,3 km/h (2 Bft) 97,92 %
15.01.2017 03:34 -0,5 C -1,1 C -2,8 C 97 % 3 lf 1016,8 hPa 0,0 l/m 0 min 0 min 0 W/m 12,6 km/h (3 Bft) 97,87 %
15.01.2017 03:36 -0,5 C -1,1 C -2,8 C 97 % 3 lf 1016,9 hPa 0,0 l/m 0 min 0 min 0 W/m 8,4 km/h (2 Bft) 95,74 %
15.01.2017 03:38 -0,5 C -1,1 C -2,8 C 97 % 2 lf 1016,8 hPa 0,0 l/m 0 min 0 min 0 W/m 14,6 km/h (3 Bft) 97,87 %
15.01.2017 03:40 -0,6 C -1,1 C -2,8 C 97 % 2 lf 1016,9 hPa 0,0 l/m 0 min 0 min 0 W/m 8,4 km/h (2 Bft) 97,83 %
15.01.2017 03:42 -0,6 C -1,1 C -2,8 C 97 % 3 lf 1016,9 hPa 0,0 l/m 0 min 0 min 0 W/m 12,6 km/h (3 Bft) 95,74 %
15.01.2017 03:44 -0,6 C -1,1 C -2,8 C 97 % 3 lf 1016,9 hPa 0,0 l/m 0 min 0 min 0 W/m 8,4 km/h (2 Bft) 100,00 %
15.01.2017 03:46 -0,6 C -1,1 C -2,8 C 97 % 3 lf 1016,9 hPa 0,0 l/m 0 min 0 min 0 W/m 10,5 km/h (2 Bft) 96,43 %
15.01.2017 03:48 -0,6 C -1,1 C -2,8 C 97 % 2 lf 1016,9 hPa 0,0 l/m 0 min 0 min 0 W/m 10,5 km/h (2 Bft) 95,74 %
15.01.2017 03:50 -0,6 C -1,1 C -2,8 C 97 % 2 lf 1016,9 hPa 0,0 l/m 0 min 0 min 0 W/m 12,6 km/h (3 Bft) 97,56 %
15.01.2017 03:52 -0,7 C -1,1 C -2,8 C 97 % 2 lf 1017,0 hPa 0,0 l/m 0 min 0 min 0 W/m 10,5 km/h (2 Bft) 95,74 %
15.01.2017 03:54 -0,7 C -1,1 C -2,8 C 97 % 3 lf 1017,0 hPa 0,0 l/m 0 min 0 min 0 W/m 14,6 km/h (3 Bft) 95,74 %
15.01.2017 03:56 -0,7 C -1,1 C -2,8 C 97 % 3 lf 1017,0 hPa 0,0 l/m 0 min 0 min 0 W/m 10,5 km/h (2 Bft) 97,96 %
15.01.2017 03:58 -0,7 C -1,1 C -2,8 C 97 % 3 lf 1017,1 hPa 0,0 l/m 0 min 0 min 0 W/m 10,5 km/h (2 Bft) 93,62 %
15.01.2017 04:00 -0,7 C -1,1 C -2,8 C 97 % 3 lf 1017,0 hPa 0,0 l/m 0 min 0 min 0 W/m 8,4 km/h (2 Bft) 93,62 %
15.01.2017 04:05 -0,7 C -1,1 C -2,8 C 97 % 3 lf 1017,1 hPa 0,0 l/m 0 min 0 min 0 W/m 14,6 km/h (3 Bft) 95,31 %
15.01.2017 04:06 -0,7 C -1,1 C -2,8 C 97 % 3 lf 1017,1 hPa 0,0 l/m 0 min 0 min 0 W/m 12,6 km/h (3 Bft) 100,00 %
15.01.2017 04:08 -0,7 C -1,1 C -2,8 C 97 % 3 lf 1017,0 hPa 0,0 l/m 0 min 0 min 0 W/m 12,6 km/h (3 Bft) 91,43 %
15.01.2017 04:10 -0,7 C -1,1 C -2,8 C 97 % 3 lf 1017,1 hPa 0,0 l/m 0 min 0 min 0 W/m 10,5 km/h (2 Bft) 96,23 %
15.01.2017 04:12 -0,7 C -1,1 C -2,8 C 97 % 3 lf 1017,1 hPa 0,0 l/m 0 min 0 min 0 W/m 8,4 km/h (2 Bft) 97,87 %
15.01.2017 04:14 -0,7 C -1,1 C -2,8 C 97 % 3 lf 1017,0 hPa 0,0 l/m 0 min 0 min 0 W/m 12,6 km/h (3 Bft) 97,87 %
15.01.2017 04:16 -0,7 C -1,1 C -2,8 C 97 % 3 lf 1017,0 hPa 0,0 l/m 0 min 0 min 0 W/m 14,6 km/h (3 Bft) 95,74 %
15.01.2017 04:18 -0,7 C -1,1 C -2,8 C 97 % 2 lf 1017,1 hPa 0,0 l/m 0 min 0 min 0 W/m 12,6 km/h (3 Bft) 93,48 %
15.01.2017 04:20 -0,7 C -1,1 C -2,8 C 97 % 2 lf 1017,0 hPa 0,0 l/m 0 min 0 min 0 W/m 8,4 km/h (2 Bft) 97,87 %
15.01.2017 04:22 -0,7 C -1,1 C -2,8 C 97 % 2 lf 1017,0 hPa 0,0 l/m 0 min 0 min 0 W/m 10,5 km/h (2 Bft) 95,74 %
15.01.2017 04:24 -0,7 C -1,1 C -2,8 C 97 % 2 lf 1017,0 hPa 0,0 l/m 0 min 0 min 0 W/m 18,8 km/h (3 Bft) 95,74 %
15.01.2017 04:26 -0,7 C -1,1 C -2,8 C 97 % 2 lf 1017,0 hPa 0,0 l/m 0 min 0 min 0 W/m 14,6 km/h (3 Bft) 97,87 %
15.01.2017 04:28 -0,7 C -1,1 C -2,8 C 97 % 2 lf 1016,9 hPa 0,0 l/m 0 min 0 min 0 W/m 14,6 km/h (3 Bft) 95,74 %
15.01.2017 04:30 -0,8 C -1,1 C -2,8 C 97 % 2 lf 1017,0 hPa 0,0 l/m 0 min 0 min 0 W/m 10,5 km/h (2 Bft) 100,00 %
15.01.2017 04:32 -0,8 C -1,1 C -2,8 C 97 % 2 lf 1017,0 hPa 0,0 l/m 0 min 0 min 0 W/m 14,6 km/h (3 Bft) 100,00 %
15.01.2017 04:34 -0,8 C -1,1 C -2,8 C 97 % 2 lf 1017,0 hPa 0,0 l/m 0 min 0 min 0 W/m 14,6 km/h (3 Bft) 97,87 %
15.01.2017 04:36 -0,8 C -1,1 C -2,8 C 97 % 2 lf 1017,1 hPa 0,0 l/m 0 min 0 min 0 W/m 12,6 km/h (3 Bft) 97,62 %
15.01.2017 04:38 -0,8 C -1,1 C -2,8 C 97 % 2 lf 1017,1 hPa 0,0 l/m 0 min 0 min 0 W/m 14,6 km/h (3 Bft) 100,00 %
15.01.2017 04:40 -0,8 C -1,1 C -2,8 C 97 % 2 lf 1017,1 hPa 0,0 l/m 0 min 0 min 0 W/m 12,6 km/h (3 Bft) 97,87 %
15.01.2017 04:42 -0,8 C -1,1 C -2,8 C 97 % 2 lf 1017,1 hPa 0,0 l/m 0 min 0 min 0 W/m 10,5 km/h (2 Bft) 95,83 %
15.01.2017 04:44 -0,8 C -1,1 C -2,8 C 97 % 2 lf 1017,1 hPa 0,0 l/m 0 min 0 min 0 W/m 10,5 km/h (2 Bft) 93,48 %
15.01.2017 04:46 -0,8 C -1,1 C -2,8 C 97 % 3 lf 1017,1 hPa 0,0 l/m 0 min 0 min 0 W/m 12,6 km/h (3 Bft) 100,00 %
15.01.2017 04:48 -0,8 C -1,1 C -2,8 C 97 % 3 lf 1017,1 hPa 0,0 l/m 0 min 0 min 0 W/m 10,5 km/h (2 Bft) 97,87 %
15.01.2017 04:50 -0,8 C -1,1 C -2,8 C 97 % 3 lf 1017,1 hPa 0,0 l/m 0 min 0 min 0 W/m 12,6 km/h (3 Bft) 97,14 %
15.01.2017 04:52 -0,7 C -1,1 C -2,8 C 97 % 3 lf 1017,2 hPa 0,0 l/m 0 min 0 min 0 W/m 12,6 km/h (3 Bft) 96,77 %
15.01.2017 04:54 -0,7 C -1,1 C -2,8 C 97 % 3 lf 1017,2 hPa 0,0 l/m 0 min 0 min 0 W/m 12,6 km/h (3 Bft) 97,87 %
15.01.2017 04:56 -0,7 C -1,1 C -2,8 C 97 % 2 lf 1017,2 hPa 0,0 l/m 0 min 0 min 0 W/m 12,6 km/h (3 Bft) 93,62 %
15.01.2017 04:58 -0,7 C -1,1 C -2,8 C 97 % 2 lf 1017,2 hPa 0,0 l/m 0 min 0 min 0 W/m 10,5 km/h (2 Bft) 93,62 %
15.01.2017 05:00 -0,7 C -1,1 C -2,8 C 97 % 2 lf 1017,3 hPa 0,0 l/m 0 min 0 min 0 W/m 16,7 km/h (3 Bft) 97,87 %
15.01.2017 05:02 -0,7 C -1,1 C -2,8 C 97 % 2 lf 1017,3 hPa 0,0 l/m 0 min 0 min 0 W/m 12,6 km/h (3 Bft) 97,87 %
15.01.2017 05:04 -0,7 C -1,1 C -2,8 C 97 % 2 lf 1017,2 hPa 0,0 l/m 0 min 0 min 0 W/m 10,5 km/h (2 Bft) 95,65 %
15.01.2017 05:06 -0,8 C -1,1 C -2,8 C 97 % 2 lf 1017,3 hPa 0,0 l/m 0 min 0 min 0 W/m 8,4 km/h (2 Bft) 95,35 %
15.01.2017 05:08 -0,8 C -1,1 C -2,8 C 97 % 2 lf 1017,3 hPa 0,0 l/m 0 min 0 min 0 W/m 14,6 km/h (3 Bft) 95,74 %
15.01.2017 05:10 -0,8 C -1,1 C -2,8 C 97 % 2 lf 1017,4 hPa 0,0 l/m 0 min 0 min 0 W/m 10,5 km/h (2 Bft) 95,74 %
15.01.2017 05:12 -0,8 C -1,1 C -2,8 C 97 % 2 lf 1017,3 hPa 0,0 l/m 0 min 0 min 0 W/m 10,5 km/h (2 Bft) 93,62 %
15.01.2017 05:14 -0,8 C -1,1 C -3,3 C 97 % 2 lf 1017,4 hPa 0,0 l/m 0 min 0 min 0 W/m 14,6 km/h (3 Bft) 93,62 %
15.01.2017 05:16 -0,8 C -1,1 C -3,3 C 97 % 2 lf 1017,4 hPa 0,0 l/m 0 min 0 min 0 W/m 8,4 km/h (2 Bft) 95,74 %
15.01.2017 05:18 -0,8 C -1,7 C -3,3 C 97 % 2 lf 1017,3 hPa 0,0 l/m 0 min 0 min 0 W/m 10,5 km/h (2 Bft) 95,65 %
15.01.2017 05:20 -0,8 C -1,1 C -3,3 C 97 % 2 lf 1017,3 hPa 0,0 l/m 0 min 0 min 0 W/m 10,5 km/h (2 Bft) 94,29 %
15.01.2017 05:22 -0,8 C -1,1 C -3,3 C 97 % 2 lf 1017,3 hPa 0,0 l/m 0 min 0 min 0 W/m 12,6 km/h (3 Bft) 93,65 %
15.01.2017 05:24 -0,9 C -1,7 C -3,3 C 97 % 2 lf 1017,3 hPa 0,0 l/m 0 min 0 min 0 W/m 8,4 km/h (2 Bft) 95,74 %
15.01.2017 05:26 -0,9 C -1,1 C -3,3 C 97 % 2 lf 1017,3 hPa 0,0 l/m 0 min 0 min 0 W/m 10,5 km/h (2 Bft) 95,74 %
15.01.2017 05:28 -0,9 C -1,1 C -2,8 C 97 % 2 lf 1017,3 hPa 0,0 l/m 0 min 0 min 0 W/m 10,5 km/h (2 Bft) 95,65 %
15.01.2017 05:30 -0,9 C -1,1 C -3,3 C 97 % 2 lf 1017,3 hPa 0,0 l/m 0 min 0 min 0 W/m 10,5 km/h (2 Bft) 95,74 %
15.01.2017 05:32 -0,9 C -1,1 C -3,3 C 97 % 2 lf 1017,4 hPa 0,0 l/m 0 min 0 min 0 W/m 10,5 km/h (2 Bft) 93,62 %
15.01.2017 05:34 -0,9 C -1,1 C -3,3 C 97 % 2 lf 1017,4 hPa 0,0 l/m 0 min 0 min 0 W/m 12,6 km/h (3 Bft) 95,74 %
15.01.2017 05:36 -0,9 C -1,1 C -3,3 C 97 % 2 lf 1017,4 hPa 0,0 l/m 0 min 0 min 0 W/m 8,4 km/h (2 Bft) 92,86 %
15.01.2017 05:38 -0,9 C -1,7 C -3,3 C 97 % 2 lf 1017,4 hPa 0,0 l/m 0 min 0 min 0 W/m 8,4 km/h (2 Bft) 91,49 %
15.01.2017 05:40 -1,0 C -1,7 C -3,3 C 97 % 2 lf 1017,5 hPa 0,0 l/m 0 min 0 min 0 W/m 12,6 km/h (3 Bft) 95,65 %
15.01.2017 05:42 -1,0 C -1,7 C -3,9 C 97 % 2 lf 1017,5 hPa 0,0 l/m 0 min 0 min 0 W/m 8,4 km/h (2 Bft) 97,87 %
15.01.2017 05:44 -1,0 C -1,7 C -3,3 C 97 % 2 lf 1017,4 hPa 0,0 l/m 0 min 0 min 0 W/m 10,5 km/h (2 Bft) 95,74 %
15.01.2017 05:46 -1,1 C -1,7 C -3,3 C 97 % 2 lf 1017,5 hPa 0,0 l/m 0 min 0 min 0 W/m 8,4 km/h (2 Bft) 95,74 %
15.01.2017 05:48 -1,1 C -1,7 C -3,3 C 97 % 2 lf 1017,4 hPa 0,0 l/m 0 min 0 min 0 W/m 10,5 km/h (2 Bft) 93,62 %
15.01.2017 05:50 -1,1 C -1,7 C -3,3 C 97 % 2 lf 1017,5 hPa 0,0 l/m 0 min 0 min 0 W/m 8,4 km/h (2 Bft) 95,74 %
15.01.2017 05:52 -1,1 C -1,7 C -3,3 C 97 % 2 lf 1017,5 hPa 0,0 l/m 0 min 0 min 0 W/m 10,5 km/h (2 Bft) 93,48 %
15.01.2017 05:54 -1,1 C -1,7 C -3,3 C 97 % 2 lf 1017,5 hPa 0,0 l/m 0 min 0 min 0 W/m 10,5 km/h (2 Bft) 95,74 %
15.01.2017 05:56 -1,1 C -1,7 C -3,3 C 97 % 2 lf 1017,5 hPa 0,0 l/m 0 min 0 min 0 W/m 10,5 km/h (2 Bft) 93,62 %
15.01.2017 05:58 -1,1 C -1,7 C -3,3 C 97 % 2 lf 1017,5 hPa 0,0 l/m 0 min 0 min 0 W/m 12,6 km/h (3 Bft) 95,74 %
15.01.2017 06:00 -1,1 C -1,7 C -3,3 C 97 % 2 lf 1017,5 hPa 0,0 l/m 0 min 0 min 0 W/m 10,5 km/h (2 Bft) 95,74 %
15.01.2017 06:02 -1,1 C -1,7 C -3,3 C 97 % 2 lf 1017,5 hPa 0,0 l/m 0 min 0 min 0 W/m 10,5 km/h (2 Bft) 93,75 %
15.01.2017 06:04 -1,1 C -1,7 C -3,9 C 97 % 2 lf 1017,5 hPa 0,0 l/m 0 min 0 min 0 W/m 8,4 km/h (2 Bft) 93,48 %
15.01.2017 06:06 -1,2 C -1,7 C -3,3 C 97 % 2 lf 1017,6 hPa 0,0 l/m 0 min 0 min 0 W/m 8,4 km/h (2 Bft) 93,62 %
15.01.2017 06:08 -1,2 C -1,7 C -3,3 C 97 % 2 lf 1017,6 hPa 0,0 l/m 0 min 0 min 0 W/m 10,5 km/h (2 Bft) 95,74 %
15.01.2017 06:10 -1,2 C -1,7 C -3,3 C 97 % 2 lf 1017,6 hPa 0,0 l/m 0 min 0 min 0 W/m 8,4 km/h (2 Bft) 93,62 %
15.01.2017 06:12 -1,2 C -1,7 C -3,3 C 97 % 2 lf 1017,6 hPa 0,0 l/m 0 min 0 min 0 W/m 10,5 km/h (2 Bft) 95,74 %
15.01.2017 06:14 -1,2 C -1,7 C -3,3 C 97 % 2 lf 1017,7 hPa 0,0 l/m 0 min 0 min 0 W/m 8,4 km/h (2 Bft) 95,74 %
15.01.2017 06:16 -1,2 C -1,7 C -3,3 C 97 % 2 lf 1017,7 hPa 0,0 l/m 0 min 0 min 0 W/m 10,5 km/h (2 Bft) 93,48 %
15.01.2017 06:18 -1,2 C -1,7 C -3,3 C 97 % 2 lf 1017,7 hPa 0,0 l/m 0 min 0 min 0 W/m 8,4 km/h (2 Bft) 93,62 %
15.01.2017 06:20 -1,2 C -1,7 C -3,3 C 97 % 2 lf 1017,7 hPa 0,0 l/m 0 min 0 min 0 W/m 8,4 km/h (2 Bft) 94,29 %
15.01.2017 06:22 -1,2 C -1,7 C -3,3 C 97 % 2 lf 1017,7 hPa 0,0 l/m 0 min 0 min 0 W/m 10,5 km/h (2 Bft) 92,06 %
15.01.2017 06:24 -1,2 C -1,7 C -3,9 C 97 % 2 lf 1017,8 hPa 0,0 l/m 0 min 0 min 0 W/m 10,5 km/h (2 Bft) 95,74 %
15.01.2017 06:26 -1,2 C -1,7 C -3,3 C 97 % 2 lf 1017,8 hPa 0,0 l/m 0 min 0 min 0 W/m 10,5 km/h (2 Bft) 89,13 %
15.01.2017 06:28 -1,2 C -1,7 C -3,9 C 97 % 2 lf 1017,8 hPa 0,0 l/m 0 min 0 min 0 W/m 10,5 km/h (2 Bft) 97,87 %
15.01.2017 06:30 -1,2 C -1,7 C -3,9 C 97 % 2 lf 1017,8 hPa 0,0 l/m 0 min 0 min 0 W/m 6,3 km/h (2 Bft) 95,74 %
15.01.2017 06:32 -1,2 C -1,7 C -3,9 C 97 % 2 lf 1017,9 hPa 0,0 l/m 0 min 0 min 0 W/m 6,3 km/h (2 Bft) 93,62 %
15.01.2017 06:34 -1,2 C -1,7 C -3,9 C 97 % 1 lf 1017,8 hPa 0,0 l/m 0 min 0 min 0 W/m 10,5 km/h (2 Bft) 100,00 %
15.01.2017 06:36 -1,3 C -1,7 C -3,9 C 97 % 1 lf 1017,8 hPa 0,0 l/m 0 min 0 min 0 W/m 8,4 km/h (2 Bft) 91,49 %
15.01.2017 06:38 -1,3 C -1,7 C -3,9 C 97 % 1 lf 1017,8 hPa 0,0 l/m 0 min 0 min 0 W/m 8,4 km/h (2 Bft) 97,83 %
15.01.2017 06:40 -1,3 C -2,2 C -3,9 C 97 % 1 lf 1017,9 hPa 0,0 l/m 0 min 0 min 0 W/m 6,3 km/h (2 Bft) 97,87 %
15.01.2017 06:42 -1,3 C -2,2 C -3,9 C 97 % 1 lf 1017,8 hPa 0,0 l/m 0 min 0 min 0 W/m 6,3 km/h (2 Bft) 97,87 %
15.01.2017 06:44 -1,3 C -2,2 C -3,9 C 97 % 1 lf 1017,8 hPa 0,0 l/m 0 min 0 min 0 W/m 10,5 km/h (2 Bft) 91,49 %
15.01.2017 06:46 -1,4 C -2,2 C -3,9 C 97 % 1 lf 1017,9 hPa 0,0 l/m 0 min 0 min 0 W/m 8,4 km/h (2 Bft) 95,74 %
15.01.2017 06:48 -1,4 C -2,2 C -3,9 C 97 % 1 lf 1017,9 hPa 0,0 l/m 0 min 0 min 0 W/m 8,4 km/h (2 Bft) 97,87 %
15.01.2017 06:50 -1,4 C -2,2 C -3,9 C 97 % 1 lf 1017,9 hPa 0,0 l/m 0 min 0 min 0 W/m 6,3 km/h (2 Bft) 97,83 %
15.01.2017 06:52 -1,4 C -2,2 C -3,9 C 97 % 1 lf 1017,9 hPa 0,0 l/m 0 min 0 min 0 W/m 8,4 km/h (2 Bft) 95,74 %
15.01.2017 06:54 -1,4 C -2,2 C -3,9 C 97 % 1 lf 1017,9 hPa 0,0 l/m 0 min 0 min 0 W/m 8,4 km/h (2 Bft) 93,62 %
15.01.2017 06:56 -1,4 C -2,2 C -3,9 C 97 % 1 lf 1017,9 hPa 0,0 l/m 0 min 0 min 0 W/m 8,4 km/h (2 Bft) 97,87 %
15.01.2017 06:58 -1,5 C -2,2 C -3,9 C 97 % 1 lf 1018,0 hPa 0,0 l/m 0 min 0 min 0 W/m 10,5 km/h (2 Bft) 97,87 %
15.01.2017 07:00 -1,5 C -1,7 C -3,9 C 97 % 1 lf 1018,0 hPa 0,0 l/m 0 min 0 min 0 W/m 10,5 km/h (2 Bft) 87,23 %
15.01.2017 07:02 -1,5 C -2,2 C -3,9 C 97 % 1 lf 1018,0 hPa 0,0 l/m 0 min 0 min 0 W/m 6,3 km/h (2 Bft) 91,30 %
15.01.2017 07:04 -1,5 C -1,7 C -3,9 C 97 % 1 lf 1018,0 hPa 0,0 l/m 0 min 0 min 0 W/m 8,4 km/h (2 Bft) 97,87 %
15.01.2017 07:06 -1,5 C -2,2 C -3,9 C 97 % 1 lf 1018,0 hPa 0,0 l/m 0 min 0 min 0 W/m 8,4 km/h (2 Bft) 91,49 %
15.01.2017 07:08 -1,5 C -2,2 C -3,9 C 97 % 1 lf 1018,1 hPa 0,0 l/m 0 min 0 min 0 W/m 8,4 km/h (2 Bft) 97,87 %
15.01.2017 07:10 -1,6 C -2,2 C -3,9 C 97 % 1 lf 1018,1 hPa 0,0 l/m 0 min 0 min 0 W/m 8,4 km/h (2 Bft) 97,87 %
15.01.2017 07:12 -1,6 C -2,2 C -3,9 C 97 % 1 lf 1018,1 hPa 0,0 l/m 0 min 0 min 0 W/m 14,6 km/h (3 Bft) 97,83 %
15.01.2017 07:14 -1,6 C -2,2 C -3,9 C 97 % 1 lf 1018,2 hPa 0,0 l/m 0 min 0 min 0 W/m 10,5 km/h (2 Bft) 100,00 %
15.01.2017 07:16 -1,6 C -2,2 C -3,9 C 97 % 1 lf 1018,1 hPa 0,0 l/m 0 min 0 min 0 W/m 8,4 km/h (2 Bft) 97,87 %
15.01.2017 07:18 -1,6 C -1,7 C -3,9 C 97 % 1 lf 1018,2 hPa 0,0 l/m 0 min 0 min 0 W/m 10,5 km/h (2 Bft) 93,62 %
15.01.2017 07:20 -1,6 C -1,7 C -3,9 C 97 % 2 lf 1018,2 hPa 0,0 l/m 0 min 0 min 0 W/m 8,4 km/h (2 Bft) 97,87 %
15.01.2017 07:22 -1,6 C -2,2 C -3,9 C 97 % 1 lf 1018,2 hPa 0,0 l/m 0 min 0 min 0 W/m 12,6 km/h (3 Bft) 95,74 %
15.01.2017 07:24 -1,6 C -2,2 C -3,9 C 97 % 1 lf 1018,3 hPa 0,0 l/m 0 min 0 min 0 W/m 8,4 km/h (2 Bft) 97,83 %
15.01.2017 07:26 -1,6 C -2,2 C -3,9 C 97 % 1 lf 1018,3 hPa 0,0 l/m 0 min 0 min 0 W/m 8,4 km/h (2 Bft) 97,87 %
15.01.2017 07:28 -1,6 C -2,2 C -3,9 C 97 % 1 lf 1018,3 hPa 0,0 l/m 0 min 0 min 0 W/m 6,3 km/h (2 Bft) 93,62 %
15.01.2017 07:30 -1,6 C -2,2 C -3,9 C 97 % 1 lf 1018,2 hPa 0,0 l/m 0 min 0 min 0 W/m 8,4 km/h (2 Bft) 95,74 %
15.01.2017 07:32 -1,6 C -2,2 C -3,9 C 97 % 1 lf 1018,3 hPa 0,0 l/m 0 min 0 min 0 W/m 8,4 km/h (2 Bft) 97,56 %
15.01.2017 07:34 -1,6 C -2,2 C -3,9 C 97 % 1 lf 1018,3 hPa 0,0 l/m 0 min 0 min 0 W/m 8,4 km/h (2 Bft) 96,23 %
15.01.2017 07:36 -1,6 C -2,2 C -3,9 C 97 % 1 lf 1018,3 hPa 0,0 l/m 0 min 0 min 0 W/m 10,5 km/h (2 Bft) 97,83 %
15.01.2017 07:38 -1,7 C -2,2 C -4,4 C 97 % 1 lf 1018,4 hPa 0,0 l/m 0 min 0 min 0 W/m 6,3 km/h (2 Bft) 95,74 %
15.01.2017 07:40 -1,7 C -2,2 C -4,4 C 97 % 1 lf 1018,5 hPa 0,0 l/m 0 min 0 min 0 W/m 8,4 km/h (2 Bft) 91,49 %
15.01.2017 07:42 -1,7 C -2,2 C -4,4 C 97 % 1 lf 1018,6 hPa 0,0 l/m 0 min 0 min 0 W/m 8,4 km/h (2 Bft) 93,62 %
15.01.2017 07:44 -1,7 C -2,2 C -3,9 C 97 % 1 lf 1018,6 hPa 0,0 l/m 0 min 0 min 0 W/m 6,3 km/h (2 Bft) 95,74 %
15.01.2017 07:46 -1,7 C -2,2 C -3,9 C 97 % 1 lf 1018,6 hPa 0,0 l/m 0 min 0 min 0 W/m 10,5 km/h (2 Bft) 96,15 %
15.01.2017 07:48 -1,7 C -2,2 C -3,9 C 97 % 1 lf 1018,7 hPa 0,0 l/m 0 min 0 min 0 W/m 12,6 km/h (3 Bft) 95,74 %
15.01.2017 07:50 -1,7 C -2,2 C -3,9 C 97 % 1 lf 1018,7 hPa 0,0 l/m 0 min 0 min 0 W/m 6,3 km/h (2 Bft) 95,74 %
15.01.2017 07:52 -1,7 C -2,2 C -4,4 C 97 % 1 lf 1018,7 hPa 0,0 l/m 0 min 0 min 0 W/m 10,5 km/h (2 Bft) 91,43 %
15.01.2017 07:54 -1,7 C -2,2 C -3,9 C 97 % 1 lf 1018,7 hPa 0,0 l/m 0 min 0 min 0 W/m 8,4 km/h (2 Bft) 96,23 %
15.01.2017 07:56 -1,7 C -2,2 C -3,9 C 97 % 1 lf 1018,7 hPa 0,0 l/m 0 min 0 min 0 W/m 10,5 km/h (2 Bft) 93,62 %
15.01.2017 07:58 -1,7 C -2,2 C -3,9 C 97 % 1 lf 1018,7 hPa 0,0 l/m 0 min 0 min 0 W/m 10,5 km/h (2 Bft) 93,48 %
15.01.2017 08:00 -1,7 C -2,2 C -3,9 C 97 % 1 lf 1018,7 hPa 0,0 l/m 0 min 0 min 0 W/m 10,5 km/h (2 Bft) 93,62 %
15.01.2017 08:02 -1,7 C -2,2 C -3,9 C 97 % 1 lf 1018,7 hPa 0,0 l/m 0 min 0 min 0 W/m 10,5 km/h (2 Bft) 93,62 %
15.01.2017 08:04 -1,7 C -2,2 C -3,9 C 97 % 1 lf 1018,7 hPa 0,0 l/m 0 min 0 min 0 W/m 12,6 km/h (3 Bft) 97,87 %
15.01.2017 08:06 -1,7 C -2,2 C -3,9 C 97 % 1 lf 1018,8 hPa 0,0 l/m 0 min 0 min 0 W/m 10,5 km/h (2 Bft) 95,74 %
15.01.2017 08:08 -1,7 C -2,2 C -3,9 C 97 % 1 lf 1018,8 hPa 0,0 l/m 0 min 0 min 0 W/m 12,6 km/h (3 Bft) 95,74 %
15.01.2017 08:10 -1,7 C -2,2 C -3,9 C 97 % 1 lf 1018,8 hPa 0,0 l/m 0 min 0 min 0 W/m 10,5 km/h (2 Bft) 100,00 %
15.01.2017 08:12 -1,7 C -2,2 C -3,9 C 97 % 1 lf 1018,8 hPa 0,0 l/m 0 min 0 min 0 W/m 8,4 km/h (2 Bft) 100,00 %
15.01.2017 08:14 -1,7 C -2,2 C -3,9 C 97 % 1 lf 1018,8 hPa 0,0 l/m 0 min 0 min 0 W/m 12,6 km/h (3 Bft) 97,87 %
15.01.2017 08:16 -1,7 C -2,2 C -3,9 C 97 % 1 lf 1018,9 hPa 0,0 l/m 0 min 0 min 0 W/m 6,3 km/h (2 Bft) 93,62 %
15.01.2017 08:18 -1,7 C -2,2 C -3,9 C 97 % 1 lf 1018,9 hPa 0,0 l/m 0 min 0 min 0 W/m 10,5 km/h (2 Bft) 97,87 %
15.01.2017 08:20 -1,7 C -2,2 C -3,9 C 97 % 1 lf 1018,9 hPa 0,0 l/m 0 min 0 min 0 W/m 8,4 km/h (2 Bft) 93,62 %
15.01.2017 08:22 -1,7 C -2,2 C -3,9 C 97 % 1 lf 1018,9 hPa 0,0 l/m 0 min 0 min 5 W/m 8,4 km/h (2 Bft) 100,00 %
15.01.2017 08:24 -1,7 C -2,2 C -3,9 C 97 % 1 lf 1018,9 hPa 0,0 l/m 0 min 0 min 5 W/m 8,4 km/h (2 Bft) 97,87 %
15.01.2017 08:26 -1,7 C -2,2 C -3,9 C 97 % 1 lf 1019,0 hPa 0,0 l/m 0 min 0 min 5 W/m 6,3 km/h (2 Bft) 93,62 %
15.01.2017 08:28 -1,7 C -1,7 C -3,9 C 97 % 1 lf 1019,0 hPa 0,0 l/m 0 min 0 min 5 W/m 6,3 km/h (2 Bft) 100,00 %
15.01.2017 08:30 -1,7 C -2,2 C -3,9 C 97 % 1 lf 1019,0 hPa 0,0 l/m 0 min 0 min 5 W/m 8,4 km/h (2 Bft) 97,87 %
15.01.2017 08:32 -1,6 C -2,2 C -3,9 C 97 % 1 lf 1019,0 hPa 0,0 l/m 0 min 0 min 6 W/m 8,4 km/h (2 Bft) 97,87 %
15.01.2017 08:34 -1,7 C -2,2 C -3,9 C 97 % 1 lf 1019,0 hPa 0,2 l/m 0 min 0 min 7 W/m 8,4 km/h (2 Bft) 97,83 %
15.01.2017 08:36 -1,7 C -2,2 C -3,9 C 97 % 1 lf 1019,0 hPa 0,2 l/m 0 min 0 min 7 W/m 8,4 km/h (2 Bft) 100,00 %
15.01.2017 08:38 -1,7 C -2,2 C -3,9 C 97 % 1 lf 1019,0 hPa 0,0 l/m 0 min 0 min 7 W/m 10,5 km/h (2 Bft) 100,00 %
15.01.2017 08:40 -1,7 C -2,2 C -3,9 C 97 % 1 lf 1019,0 hPa 0,0 l/m 0 min 0 min 7 W/m 12,6 km/h (3 Bft) 95,74 %
15.01.2017 08:42 -1,7 C -1,7 C -3,9 C 97 % 1 lf 1019,0 hPa 0,2 l/m 0 min 0 min 9 W/m 12,6 km/h (3 Bft) 95,74 %
15.01.2017 08:44 -1,7 C -1,7 C -3,3 C 97 % 2 lf 1019,0 hPa 0,0 l/m 0 min 0 min 9 W/m 12,6 km/h (3 Bft) 97,87 %
15.01.2017 08:46 -1,6 C -1,7 C -3,3 C 97 % 1 lf 1019,0 hPa 0,2 l/m 0 min 0 min 9 W/m 10,5 km/h (2 Bft) 100,00 %
15.01.2017 08:48 -1,6 C -1,7 C -3,3 C 97 % 1 lf 1019,0 hPa 0,0 l/m 0 min 0 min 11 W/m 10,5 km/h (2 Bft) 97,87 %
15.01.2017 08:50 -1,6 C -1,7 C -3,9 C 97 % 1 lf 1019,0 hPa 0,0 l/m 0 min 0 min 11 W/m 8,4 km/h (2 Bft) 100,00 %
15.01.2017 08:52 -1,6 C -1,7 C -3,9 C 97 % 1 lf 1019,0 hPa 0,0 l/m 0 min 0 min 12 W/m 10,5 km/h (2 Bft) 96,83 %
15.01.2017 08:54 -1,6 C -1,7 C -3,9 C 97 % 1 lf 1019,0 hPa 0,0 l/m 0 min 0 min 14 W/m 8,4 km/h (2 Bft) 97,87 %
15.01.2017 08:56 -1,7 C -1,7 C -3,9 C 97 % 1 lf 1019,1 hPa 0,0 l/m 0 min 0 min 14 W/m 10,5 km/h (2 Bft) 91,49 %
15.01.2017 08:58 -1,7 C -1,7 C -3,9 C 97 % 1 lf 1019,1 hPa 0,0 l/m 0 min 0 min 17 W/m 6,3 km/h (2 Bft) 95,65 %
15.01.2017 09:00 -1,7 C -1,7 C -3,9 C 97 % 1 lf 1019,0 hPa 0,2 l/m 0 min 0 min 18 W/m 10,5 km/h (2 Bft) 97,87 %
15.01.2017 09:02 -1,7 C -1,7 C -3,9 C 97 % 1 lf 1019,1 hPa 0,0 l/m 0 min 0 min 19 W/m 8,4 km/h (2 Bft) 100,00 %
15.01.2017 09:04 -1,7 C -1,7 C -3,9 C 97 % 1 lf 1019,1 hPa 0,0 l/m 0 min 0 min 20 W/m 8,4 km/h (2 Bft) 100,00 %
15.01.2017 09:06 -1,7 C -1,7 C -3,9 C 97 % 1 lf 1019,1 hPa 0,0 l/m 0 min 0 min 23 W/m 8,4 km/h (2 Bft) 100,00 %
15.01.2017 09:08 -1,7 C -1,7 C -3,9 C 97 % 1 lf 1019,1 hPa 0,0 l/m 0 min 0 min 25 W/m 8,4 km/h (2 Bft) 100,00 %
15.01.2017 09:10 -1,7 C -1,7 C -3,9 C 97 % 1 lf 1019,1 hPa 0,0 l/m 0 min 0 min 26 W/m 8,4 km/h (2 Bft) 97,83 %
15.01.2017 09:12 -1,7 C -1,7 C -3,9 C 97 % 1 lf 1019,2 hPa 0,0 l/m 0 min 0 min 28 W/m 6,3 km/h (2 Bft) 100,00 %
15.01.2017 09:14 -1,7 C -1,7 C -3,9 C 97 % 1 lf 1019,2 hPa 0,0 l/m 0 min 0 min 29 W/m 8,4 km/h (2 Bft) 97,87 %
15.01.2017 09:16 -1,7 C -1,7 C -3,9 C 97 % 1 lf 1019,1 hPa 0,0 l/m 0 min 0 min 31 W/m 8,4 km/h (2 Bft) 95,74 %
15.01.2017 09:18 -1,7 C -1,7 C -3,9 C 97 % 1 lf 1019,2 hPa 0,0 l/m 0 min 0 min 32 W/m 10,5 km/h (2 Bft) 97,87 %
15.01.2017 09:20 -1,7 C -1,7 C -3,9 C 97 % 1 lf 1019,2 hPa 0,0 l/m 0 min 0 min 33 W/m 8,4 km/h (2 Bft) 93,48 %
15.01.2017 09:22 -1,7 C -1,7 C -3,9 C 97 % 1 lf 1019,2 hPa 0,0 l/m 0 min 0 min 36 W/m 10,5 km/h (2 Bft) 97,87 %
15.01.2017 09:24 -1,7 C -1,7 C -3,9 C 97 % 1 lf 1019,2 hPa 0,0 l/m 0 min 0 min 38 W/m 8,4 km/h (2 Bft) 97,87 %
15.01.2017 09:26 -1,7 C -1,7 C -3,3 C 97 % 2 lf 1019,3 hPa 0,0 l/m 0 min 0 min 39 W/m 8,4 km/h (2 Bft) 97,87 %
15.01.2017 09:28 -1,7 C -1,7 C -3,3 C 97 % 2 lf 1019,3 hPa 0,0 l/m 0 min 0 min 41 W/m 8,4 km/h (2 Bft) 95,74 %
15.01.2017 09:30 -1,7 C -1,7 C -3,3 C 97 % 2 lf 1019,3 hPa 0,0 l/m 0 min 0 min 42 W/m 14,6 km/h (3 Bft) 89,36 %
15.01.2017 09:32 -1,7 C -1,1 C -3,3 C 97 % 2 lf 1019,3 hPa 0,2 l/m 0 min 0 min 44 W/m 10,5 km/h (2 Bft) 95,12 %
15.01.2017 09:34 -1,6 C -1,1 C -3,3 C 97 % 2 lf 1019,4 hPa 0,0 l/m 0 min 0 min 47 W/m 12,6 km/h (3 Bft) 90,38 %
15.01.2017 09:36 -1,6 C -1,1 C -3,3 C 97 % 2 lf 1019,3 hPa 0,0 l/m 0 min 0 min 49 W/m 12,6 km/h (3 Bft) 93,62 %
15.01.2017 09:38 -1,6 C -1,1 C -3,3 C 97 % 2 lf 1019,4 hPa 0,0 l/m 0 min 0 min 52 W/m 10,5 km/h (2 Bft) 93,62 %
15.01.2017 09:40 -1,6 C -1,1 C -3,3 C 97 % 2 lf 1019,4 hPa 0,0 l/m 0 min 0 min 56 W/m 6,3 km/h (2 Bft) 89,36 %
15.01.2017 09:42 -1,6 C -1,1 C -3,3 C 97 % 2 lf 1019,5 hPa 0,0 l/m 0 min 0 min 59 W/m 8,4 km/h (2 Bft) 91,49 %
15.01.2017 09:44 -1,6 C -1,1 C -3,3 C 97 % 2 lf 1019,5 hPa 0,0 l/m 0 min 0 min 63 W/m 10,5 km/h (2 Bft) 93,48 %
15.01.2017 09:46 -1,6 C -1,1 C -3,3 C 97 % 2 lf 1019,5 hPa 0,0 l/m 0 min 0 min 67 W/m 10,5 km/h (2 Bft) 92,68 %
15.01.2017 09:48 -1,5 C -1,1 C -3,3 C 97 % 2 lf 1019,5 hPa 0,0 l/m 2 min 0 min 72 W/m 10,5 km/h (2 Bft) 88,68 %
15.01.2017 09:50 -1,4 C -1,1 C -3,3 C 97 % 2 lf 1019,5 hPa 0,0 l/m 2 min 0 min 80 W/m 10,5 km/h (2 Bft) 89,36 %
15.01.2017 09:52 -1,4 C -1,1 C -2,8 C 97 % 2 lf 1019,5 hPa 0,0 l/m 2 min 0 min 82 W/m 10,5 km/h (2 Bft) 91,49 %
15.01.2017 09:54 -1,4 C -0,6 C -2,8 C 97 % 2 lf 1019,5 hPa 0,0 l/m 2 min 0 min 92 W/m 8,4 km/h (2 Bft) 93,62 %
15.01.2017 09:56 -1,4 C -0,6 C -2,8 C 97 % 2 lf 1019,5 hPa 0,0 l/m 2 min 0 min 93 W/m 10,5 km/h (2 Bft) 93,48 %
15.01.2017 09:58 -1,3 C -0,6 C -2,8 C 97 % 2 lf 1019,5 hPa 0,0 l/m 2 min 0 min 101 W/m 10,5 km/h (2 Bft) 93,62 %
15.01.2017 10:00 -1,3 C -0,6 C -2,8 C 98 % 2 lf 1019,5 hPa 0,0 l/m 2 min 0 min 110 W/m 10,5 km/h (2 Bft) 89,36 %
15.01.2017 10:02 -1,3 C -0,6 C -2,8 C 98 % 2 lf 1019,5 hPa 0,0 l/m 0 min 0 min 76 W/m 10,5 km/h (2 Bft) 93,62 %
15.01.2017 10:04 -1,2 C -0,6 C -2,8 C 98 % 2 lf 1019,5 hPa 0,0 l/m 0 min 0 min 54 W/m 10,5 km/h (2 Bft) 93,62 %
15.01.2017 10:06 -1,2 C -0,6 C -2,8 C 98 % 2 lf 1019,5 hPa 0,0 l/m 0 min 0 min 66 W/m 8,4 km/h (2 Bft) 93,48 %
15.01.2017 10:08 -1,2 C 0,0 C -2,2 C 98 % 3 lf 1019,6 hPa 0,0 l/m 0 min 0 min 63 W/m 10,5 km/h (2 Bft) 89,36 %
15.01.2017 10:10 -1,1 C 0,0 C -2,2 C 97 % 3 lf 1019,6 hPa 0,0 l/m 0 min 0 min 68 W/m 12,6 km/h (3 Bft) 91,49 %
15.01.2017 10:12 -1,1 C 0,0 C -2,2 C 98 % 3 lf 1019,6 hPa 0,0 l/m 0 min 0 min 91 W/m 10,5 km/h (2 Bft) 95,74 %
15.01.2017 10:14 -1,0 C 0,0 C -2,2 C 98 % 3 lf 1019,6 hPa 0,0 l/m 0 min 0 min 88 W/m 8,4 km/h (2 Bft) 93,62 %
15.01.2017 10:16 -1,0 C 0,0 C -2,2 C 97 % 3 lf 1019,6 hPa 0,0 l/m 0 min 0 min 78 W/m 10,5 km/h (2 Bft) 95,74 %
15.01.2017 10:18 -0,9 C 0,0 C -2,2 C 97 % 3 lf 1019,6 hPa 0,0 l/m 0 min 0 min 80 W/m 10,5 km/h (2 Bft) 93,48 %
15.01.2017 10:20 -0,9 C 0,0 C -2,2 C 97 % 3 lf 1019,6 hPa 0,0 l/m 0 min 0 min 85 W/m 8,4 km/h (2 Bft) 95,65 %
15.01.2017 10:22 -0,8 C 0,0 C -2,2 C 97 % 3 lf 1019,6 hPa 0,0 l/m 0 min 0 min 77 W/m 10,5 km/h (2 Bft) 95,74 %
15.01.2017 10:24 -0,8 C 0,0 C -2,2 C 98 % 3 lf 1019,6 hPa 0,0 l/m 0 min 0 min 65 W/m 10,5 km/h (2 Bft) 91,49 %
15.01.2017 10:26 -0,8 C 0,0 C -2,2 C 98 % 3 lf 1019,7 hPa 0,0 l/m 0 min 0 min 60 W/m 14,6 km/h (3 Bft) 95,74 %
15.01.2017 10:28 -0,8 C 0,0 C -2,2 C 98 % 3 lf 1019,6 hPa 0,0 l/m 0 min 0 min 55 W/m 10,5 km/h (2 Bft) 93,62 %
15.01.2017 10:30 -0,7 C 0,0 C -2,2 C 98 % 3 lf 1019,6 hPa 0,0 l/m 0 min 0 min 53 W/m 10,5 km/h (2 Bft) 97,83 %
15.01.2017 10:32 -0,7 C 0,0 C -2,2 C 98 % 3 lf 1019,6 hPa 0,0 l/m 0 min 0 min 52 W/m 10,5 km/h (2 Bft) 97,62 %
15.01.2017 10:34 -0,7 C 0,0 C -2,2 C 98 % 3 lf 1019,6 hPa 0,0 l/m 0 min 0 min 55 W/m 10,5 km/h (2 Bft) 95,74 %
15.01.2017 10:36 -0,7 C 0,0 C -2,2 C 98 % 3 lf 1019,6 hPa 0,0 l/m 0 min 0 min 71 W/m 8,4 km/h (2 Bft) 96,00 %
15.01.2017 10:38 -0,7 C 0,0 C -2,2 C 98 % 4 lf 1019,6 hPa 0,0 l/m 2 min 0 min 164 W/m 10,5 km/h (2 Bft) 93,62 %
15.01.2017 10:40 -0,7 C 0,0 C -2,2 C 98 % 5 lf 1019,6 hPa 0,0 l/m 2 min 0 min 206 W/m 10,5 km/h (2 Bft) 95,74 %
15.01.2017 10:42 -0,6 C 0,0 C -2,2 C 98 % 9 lf 1019,8 hPa 0,0 l/m 2 min 0 min 239 W/m 8,4 km/h (2 Bft) 95,65 %
15.01.2017 10:44 -0,6 C 0,6 C -1,7 C 98 % 13 lf 1019,7 hPa 0,0 l/m 2 min 0 min 244 W/m 10,5 km/h (2 Bft) 95,74 %
15.01.2017 10:46 -0,6 C 0,6 C -1,7 C 98 % 15 lf 1019,6 hPa 0,0 l/m 2 min 0 min 241 W/m 10,5 km/h (2 Bft) 93,62 %
15.01.2017 10:48 -0,5 C 0,6 C -1,7 C 98 % 15 lf 1019,6 hPa 0,0 l/m 2 min 0 min 266 W/m 12,6 km/h (3 Bft) 95,74 %
15.01.2017 10:50 -0,5 C 0,6 C -1,7 C 98 % 15 lf 1019,6 hPa 0,0 l/m 2 min 0 min 305 W/m 12,6 km/h (3 Bft) 97,87 %
15.01.2017 10:52 -0,4 C 1,7 C -1,7 C 98 % 15 lf 1019,6 hPa 0,0 l/m 2 min 0 min 256 W/m 10,5 km/h (2 Bft) 97,92 %
15.01.2017 10:54 -0,4 C 3,3 C -1,1 C 98 % 15 lf 1019,7 hPa 0,0 l/m 2 min 0 min 262 W/m 8,4 km/h (2 Bft) 95,65 %
15.01.2017 10:56 -0,3 C 4,4 C -1,1 C 98 % 15 lf 1019,7 hPa 0,0 l/m 2 min 2 min 337 W/m 8,4 km/h (2 Bft) 100,00 %
15.01.2017 10:58 -0,2 C 5,0 C -1,1 C 98 % 15 lf 1019,7 hPa 0,0 l/m 2 min 0 min 343 W/m 10,5 km/h (2 Bft) 100,00 %
15.01.2017 11:00 -0,2 C 5,6 C -1,1 C 98 % 15 lf 1019,9 hPa 0,0 l/m 2 min 0 min 361 W/m 10,5 km/h (2 Bft) 97,87 %
15.01.2017 11:02 -0,1 C 5,6 C -1,1 C 98 % 15 lf 1019,7 hPa 0,0 l/m 2 min 0 min 343 W/m 10,5 km/h (2 Bft) 100,00 %
15.01.2017 11:04 0,1 C 6,1 C -1,1 C 98 % 15 lf 1019,8 hPa 0,0 l/m 2 min 0 min 330 W/m 8,4 km/h (2 Bft) 100,00 %
15.01.2017 11:06 0,2 C 5,0 C -1,1 C 98 % 15 lf 1019,8 hPa 0,0 l/m 2 min 0 min 267 W/m 8,4 km/h (2 Bft) 97,83 %
15.01.2017 11:08 0,2 C 3,9 C -1,1 C 98 % 15 lf 1019,8 hPa 0,0 l/m 2 min 0 min 140 W/m 10,5 km/h (2 Bft) 100,00 %
15.01.2017 11:10 0,3 C 3,3 C -1,1 C 98 % 15 lf 1019,8 hPa 0,0 l/m 0 min 2 min 123 W/m 10,5 km/h (2 Bft) 100,00 %
15.01.2017 11:12 0,3 C 2,8 C -1,1 C 98 % 15 lf 1019,8 hPa 0,0 l/m 0 min 0 min 117 W/m 10,5 km/h (2 Bft) 100,00 %
15.01.2017 11:14 0,4 C 1,7 C -1,1 C 98 % 15 lf 1019,8 hPa 0,0 l/m 0 min 0 min 114 W/m 10,5 km/h (2 Bft) 95,74 %
15.01.2017 11:16 0,4 C 1,7 C -1,1 C 98 % 15 lf 1019,9 hPa 0,0 l/m 0 min 0 min 115 W/m 8,4 km/h (2 Bft) 95,65 %
15.01.2017 11:18 0,4 C 1,7 C -1,1 C 98 % 15 lf 1020,0 hPa 0,0 l/m 0 min 0 min 123 W/m 12,6 km/h (3 Bft) 97,87 %
15.01.2017 11:20 0,4 C 2,2 C -1,1 C 98 % 15 lf 1019,8 hPa 0,0 l/m 0 min 0 min 131 W/m 12,6 km/h (3 Bft) 100,00 %
15.01.2017 11:22 0,5 C 2,2 C -1,1 C 98 % 15 lf 1019,9 hPa 0,0 l/m 0 min 0 min 131 W/m 8,4 km/h (2 Bft) 97,87 %
15.01.2017 11:24 0,5 C 2,2 C -1,1 C 98 % 15 lf 1019,9 hPa 0,0 l/m 0 min 0 min 128 W/m 12,6 km/h (3 Bft) 100,00 %
15.01.2017 11:26 0,5 C 2,2 C -1,1 C 98 % 15 lf 1019,9 hPa 0,0 l/m 0 min 0 min 133 W/m 12,6 km/h (3 Bft) 97,87 %
15.01.2017 11:28 0,5 C 2,2 C -1,1 C 98 % 15 lf 1019,9 hPa 0,0 l/m 2 min 0 min 138 W/m 10,5 km/h (2 Bft) 100,00 %
15.01.2017 11:30 0,5 C 2,2 C -1,1 C 98 % 15 lf 1019,9 hPa 0,0 l/m 2 min 2 min 144 W/m 10,5 km/h (2 Bft) 97,87 %
15.01.2017 11:32 0,5 C 2,2 C -1,1 C 98 % 15 lf 1020,0 hPa 0,0 l/m 2 min 0 min 150 W/m 8,4 km/h (2 Bft) 95,83 %
15.01.2017 11:34 0,5 C 2,2 C -1,1 C 98 % 15 lf 1020,0 hPa 0,0 l/m 2 min 0 min 148 W/m 10,5 km/h (2 Bft) 95,74 %
15.01.2017 11:36 0,5 C 2,8 C -1,1 C 98 % 15 lf 1020,1 hPa 0,0 l/m 2 min 2 min 151 W/m 8,4 km/h (2 Bft) 100,00 %
15.01.2017 11:38 0,5 C 2,2 C -1,1 C 98 % 15 lf 1020,0 hPa 0,0 l/m 2 min 2 min 147 W/m 8,4 km/h (2 Bft) 97,87 %
15.01.2017 11:40 0,5 C 2,8 C -1,1 C 98 % 15 lf 1020,0 hPa 0,0 l/m 2 min 0 min 144 W/m 8,4 km/h (2 Bft) 97,83 %
15.01.2017 11:42 0,5 C 2,8 C -1,1 C 98 % 15 lf 1020,1 hPa 0,0 l/m 2 min 0 min 150 W/m 8,4 km/h (2 Bft) 97,87 %
15.01.2017 11:44 0,5 C 2,2 C -1,1 C 98 % 15 lf 1020,0 hPa 0,0 l/m 2 min 0 min 146 W/m 16,7 km/h (3 Bft) 97,87 %
15.01.2017 11:46 0,5 C 2,8 C -1,1 C 98 % 15 lf 1020,0 hPa 0,0 l/m 2 min 0 min 155 W/m 14,6 km/h (3 Bft) 95,74 %
15.01.2017 11:48 0,6 C 2,8 C -1,1 C 98 % 15 lf 1020,0 hPa 0,0 l/m 2 min 0 min 185 W/m 14,6 km/h (3 Bft) 89,36 %
15.01.2017 11:50 0,6 C 3,3 C -1,1 C 98 % 15 lf 1020,1 hPa 0,0 l/m 2 min 0 min 245 W/m 12,6 km/h (3 Bft) 93,62 %
15.01.2017 11:52 0,7 C 3,9 C -1,1 C 98 % 15 lf 1020,1 hPa 0,0 l/m 2 min 0 min 268 W/m 16,7 km/h (3 Bft) 95,65 %
15.01.2017 11:54 0,7 C 3,9 C -1,1 C 98 % 15 lf 1020,1 hPa 0,0 l/m 2 min 0 min 241 W/m 14,6 km/h (3 Bft) 95,74 %
15.01.2017 11:56 0,7 C 4,4 C -1,1 C 98 % 15 lf 1020,1 hPa 0,0 l/m 2 min 0 min 276 W/m 14,6 km/h (3 Bft) 95,74 %
15.01.2017 11:58 0,8 C 4,4 C -1,1 C 98 % 15 lf 1020,1 hPa 0,0 l/m 2 min 0 min 249 W/m 18,8 km/h (3 Bft) 95,74 %
15.01.2017 12:00 0,8 C 3,9 C -1,1 C 98 % 15 lf 1020,0 hPa 0,0 l/m 2 min 0 min 206 W/m 18,8 km/h (3 Bft) 95,74 %
15.01.2017 12:02 0,8 C 3,3 C -0,6 C 98 % 15 lf 1020,0 hPa 0,0 l/m 2 min 0 min 204 W/m 18,8 km/h (3 Bft) 95,65 %
15.01.2017 12:04 0,8 C 3,9 C -0,6 C 98 % 15 lf 1020,2 hPa 0,0 l/m 2 min 0 min 215 W/m 16,7 km/h (3 Bft) 86,11 %
15.01.2017 12:06 0,9 C 3,9 C -0,6 C 98 % 15 lf 1020,1 hPa 0,0 l/m 2 min 0 min 196 W/m 16,7 km/h (3 Bft) 94,34 %
15.01.2017 12:08 0,9 C 3,9 C -0,6 C 98 % 15 lf 1020,2 hPa 0,0 l/m 2 min 0 min 188 W/m 12,6 km/h (3 Bft) 93,62 %
15.01.2017 12:10 0,9 C 3,3 C -0,6 C 98 % 15 lf 1020,2 hPa 0,0 l/m 2 min 0 min 189 W/m 16,7 km/h (3 Bft) 95,74 %
15.01.2017 12:12 0,9 C 3,3 C -0,6 C 98 % 15 lf 1020,2 hPa 0,0 l/m 2 min 0 min 193 W/m 18,8 km/h (3 Bft) 93,62 %
15.01.2017 12:14 0,9 C 3,9 C -0,6 C 98 % 15 lf 1020,3 hPa 0,0 l/m 2 min 0 min 212 W/m 18,8 km/h (3 Bft) 93,62 %
15.01.2017 12:16 0,9 C 3,9 C -0,6 C 98 % 15 lf 1020,1 hPa 0,0 l/m 2 min 0 min 210 W/m 14,6 km/h (3 Bft) 95,65 %
15.01.2017 12:18 0,9 C 3,9 C -0,6 C 98 % 15 lf 1020,2 hPa 0,0 l/m 2 min 0 min 200 W/m 20,9 km/h (4 Bft) 95,74 %
15.01.2017 12:20 0,9 C 3,9 C -0,6 C 98 % 15 lf 1020,1 hPa 0,0 l/m 2 min 0 min 188 W/m 14,6 km/h (3 Bft) 95,74 %
15.01.2017 12:22 0,9 C 3,3 C -0,6 C 98 % 15 lf 1020,0 hPa 0,0 l/m 2 min 0 min 157 W/m 16,7 km/h (3 Bft) 95,83 %
15.01.2017 12:24 0,9 C 3,3 C -0,6 C 98 % 15 lf 1020,1 hPa 0,0 l/m 2 min 0 min 162 W/m 16,7 km/h (3 Bft) 93,62 %
15.01.2017 12:26 0,9 C 3,3 C 0,0 C 98 % 15 lf 1020,0 hPa 0,0 l/m 2 min 0 min 183 W/m 14,6 km/h (3 Bft) 95,74 %
15.01.2017 12:28 0,9 C 3,3 C 0,0 C 98 % 15 lf 1020,0 hPa 0,0 l/m 2 min 0 min 184 W/m 16,7 km/h (3 Bft) 100,00 %
15.01.2017 12:30 0,9 C 3,3 C 0,0 C 98 % 15 lf 1020,0 hPa 0,0 l/m 2 min 0 min 205 W/m 18,8 km/h (3 Bft) 95,74 %
15.01.2017 12:32 0,9 C 3,9 C 0,0 C 98 % 15 lf 1019,9 hPa 0,0 l/m 2 min 0 min 311 W/m 20,9 km/h (4 Bft) 91,67 %
15.01.2017 12:34 0,9 C 4,4 C 0,0 C 98 % 15 lf 1019,8 hPa 0,0 l/m 2 min 0 min 302 W/m 14,6 km/h (3 Bft) 97,87 %
15.01.2017 12:36 0,9 C 5,0 C 0,0 C 98 % 15 lf 1019,8 hPa 0,0 l/m 2 min 0 min 265 W/m 20,9 km/h (4 Bft) 98,00 %
15.01.2017 12:38 1,0 C 4,4 C 0,0 C 98 % 15 lf 1019,7 hPa 0,0 l/m 2 min 0 min 243 W/m 16,7 km/h (3 Bft) 97,83 %
15.01.2017 12:40 1,0 C 3,9 C 0,0 C 98 % 15 lf 1019,7 hPa 0,0 l/m 2 min 0 min 213 W/m 18,8 km/h (3 Bft) 91,49 %
15.01.2017 12:42 1,0 C 3,9 C 0,0 C 98 % 15 lf 1019,8 hPa 0,0 l/m 2 min 0 min 204 W/m 20,9 km/h (4 Bft) 97,87 %
15.01.2017 12:44 1,0 C 3,3 C 0,0 C 98 % 15 lf 1019,8 hPa 0,0 l/m 2 min 0 min 210 W/m 20,9 km/h (4 Bft) 95,74 %
15.01.2017 12:46 1,0 C 3,3 C 0,0 C 98 % 15 lf 1019,7 hPa 0,0 l/m 2 min 0 min 213 W/m 16,7 km/h (3 Bft) 95,74 %
15.01.2017 12:48 1,0 C 3,3 C 0,0 C 98 % 15 lf 1019,7 hPa 0,0 l/m 2 min 0 min 212 W/m 18,8 km/h (3 Bft) 97,87 %
15.01.2017 12:50 1,0 C 3,3 C 0,0 C 98 % 15 lf 1019,7 hPa 0,0 l/m 2 min 0 min 192 W/m 18,8 km/h (3 Bft) 95,65 %
15.01.2017 12:52 1,0 C 3,3 C 0,0 C 98 % 15 lf 1019,7 hPa 0,0 l/m 2 min 0 min 171 W/m 18,8 km/h (3 Bft) 95,74 %
15.01.2017 12:54 1,0 C 3,3 C 0,0 C 98 % 15 lf 1019,7 hPa 0,0 l/m 2 min 0 min 174 W/m 18,8 km/h (3 Bft) 95,74 %
15.01.2017 12:56 1,0 C 2,8 C 0,6 C 97 % 15 lf 1019,7 hPa 0,0 l/m 0 min 0 min 140 W/m 16,7 km/h (3 Bft) 95,74 %
15.01.2017 12:58 1,0 C 2,2 C 0,6 C 97 % 15 lf 1019,9 hPa 0,0 l/m 0 min 0 min 132 W/m 14,6 km/h (3 Bft) 97,87 %
15.01.2017 13:00 1,0 C 2,8 C 0,6 C 97 % 15 lf 1019,9 hPa 0,0 l/m 0 min 0 min 140 W/m 16,7 km/h (3 Bft) 95,65 %
15.01.2017 13:02 1,0 C 2,8 C 0,6 C 97 % 15 lf 1019,8 hPa 0,0 l/m 2 min 0 min 162 W/m 16,7 km/h (3 Bft) 97,22 %
15.01.2017 13:04 1,0 C 2,2 C 0,6 C 98 % 15 lf 1019,8 hPa 0,0 l/m 0 min 0 min 148 W/m 20,9 km/h (4 Bft) 97,83 %
15.01.2017 13:06 1,0 C 2,2 C 0,6 C 98 % 15 lf 1019,8 hPa 0,0 l/m 0 min 0 min 140 W/m 14,6 km/h (3 Bft) 97,87 %
15.01.2017 13:08 0,9 C 2,2 C 0,6 C 98 % 15 lf 1019,8 hPa 0,0 l/m 0 min 0 min 131 W/m 14,6 km/h (3 Bft) 95,74 %
15.01.2017 13:10 1,0 C 2,2 C 0,6 C 97 % 15 lf 1019,8 hPa 0,0 l/m 0 min 0 min 127 W/m 14,6 km/h (3 Bft) 97,87 %
15.01.2017 13:12 1,0 C 2,2 C 0,6 C 97 % 15 lf 1019,8 hPa 0,0 l/m 0 min 0 min 125 W/m 12,6 km/h (3 Bft) 93,62 %
15.01.2017 13:14 0,9 C 2,2 C 0,6 C 97 % 15 lf 1019,8 hPa 0,0 l/m 0 min 0 min 124 W/m 14,6 km/h (3 Bft) 95,74 %
15.01.2017 13:16 0,9 C 2,2 C 0,6 C 97 % 15 lf 1019,9 hPa 0,0 l/m 0 min 0 min 124 W/m 14,6 km/h (3 Bft) 97,83 %
15.01.2017 13:18 0,9 C 2,2 C 0,6 C 97 % 15 lf 1019,8 hPa 0,0 l/m 0 min 0 min 124 W/m 14,6 km/h (3 Bft) 100,00 %
15.01.2017 13:20 0,9 C 2,2 C 0,6 C 97 % 15 lf 1019,9 hPa 0,0 l/m 0 min 0 min 129 W/m 20,9 km/h (4 Bft) 97,87 %
15.01.2017 13:22 0,9 C 2,2 C 0,6 C 97 % 15 lf 1019,8 hPa 0,0 l/m 0 min 0 min 142 W/m 20,9 km/h (4 Bft) 93,62 %
15.01.2017 13:24 0,9 C 2,2 C 0,6 C 97 % 14 lf 1019,9 hPa 0,0 l/m 0 min 0 min 148 W/m 12,6 km/h (3 Bft) 95,74 %
15.01.2017 13:26 0,9 C 2,2 C 0,6 C 97 % 15 lf 1019,9 hPa 0,0 l/m 0 min 0 min 139 W/m 14,6 km/h (3 Bft) 93,48 %
15.01.2017 13:28 0,9 C 2,2 C 0,6 C 97 % 15 lf 1019,9 hPa 0,0 l/m 0 min 0 min 138 W/m 16,7 km/h (3 Bft) 97,87 %
15.01.2017 13:30 0,9 C 2,2 C 0,6 C 97 % 15 lf 1019,9 hPa 0,0 l/m 0 min 0 min 136 W/m 18,8 km/h (3 Bft) 95,74 %
15.01.2017 13:32 0,9 C 2,2 C 0,6 C 97 % 14 lf 1019,9 hPa 0,0 l/m 0 min 0 min 136 W/m 18,8 km/h (3 Bft) 97,87 %
15.01.2017 13:34 0,9 C 2,8 C 0,6 C 97 % 14 lf 1019,9 hPa 0,0 l/m 0 min 0 min 132 W/m 14,6 km/h (3 Bft) 95,74 %
15.01.2017 13:36 0,9 C 2,8 C 0,6 C 97 % 15 lf 1019,9 hPa 0,0 l/m 0 min 0 min 126 W/m 14,6 km/h (3 Bft) 95,74 %
15.01.2017 13:38 0,9 C 2,2 C 0,6 C 97 % 14 lf 1019,8 hPa 0,0 l/m 0 min 0 min 120 W/m 12,6 km/h (3 Bft) 95,65 %
15.01.2017 13:40 0,9 C 2,2 C 0,6 C 97 % 15 lf 1019,9 hPa 0,0 l/m 0 min 0 min 115 W/m 16,7 km/h (3 Bft) 97,87 %
15.01.2017 13:42 1,0 C 2,2 C 0,6 C 97 % 14 lf 1019,9 hPa 0,0 l/m 0 min 0 min 113 W/m 16,7 km/h (3 Bft) 97,87 %
15.01.2017 13:44 0,9 C 2,2 C 0,6 C 97 % 15 lf 1019,9 hPa 0,0 l/m 0 min 0 min 111 W/m 16,7 km/h (3 Bft) 91,49 %
15.01.2017 13:46 0,9 C 2,2 C 0,6 C 97 % 15 lf 1019,9 hPa 0,0 l/m 0 min 0 min 110 W/m 16,7 km/h (3 Bft) 97,87 %
15.01.2017 13:48 0,9 C 2,2 C 0,6 C 97 % 14 lf 1019,9 hPa 0,0 l/m 0 min 0 min 121 W/m 12,6 km/h (3 Bft) 97,87 %
15.01.2017 13:50 1,0 C 2,8 C 0,6 C 97 % 14 lf 1020,0 hPa 0,0 l/m 0 min 0 min 124 W/m 16,7 km/h (3 Bft) 95,65 %
15.01.2017 13:52 0,9 C 2,2 C 0,6 C 97 % 15 lf 1019,9 hPa 0,0 l/m 0 min 0 min 121 W/m 18,8 km/h (3 Bft) 97,87 %
15.01.2017 13:54 0,9 C 2,2 C 0,6 C 97 % 15 lf 1019,9 hPa 0,0 l/m 0 min 0 min 112 W/m 10,5 km/h (2 Bft) 95,74 %
15.01.2017 13:56 0,9 C 2,2 C 0,6 C 97 % 14 lf 1019,9 hPa 0,0 l/m 0 min 0 min 112 W/m 14,6 km/h (3 Bft) 97,87 %
15.01.2017 13:58 0,9 C 2,2 C 0,6 C 97 % 14 lf 1019,9 hPa 0,0 l/m 0 min 0 min 104 W/m 12,6 km/h (3 Bft) 97,87 %
15.01.2017 14:00 1,0 C 2,2 C 0,6 C 97 % 15 lf 1019,9 hPa 0,0 l/m 0 min 0 min 97 W/m 10,5 km/h (2 Bft) 97,87 %
15.01.2017 14:02 0,9 C 2,2 C 0,6 C 97 % 14 lf 1019,9 hPa 0,0 l/m 0 min 0 min 98 W/m 14,6 km/h (3 Bft) 97,83 %
15.01.2017 14:04 1,0 C 2,2 C 0,6 C 96 % 15 lf 1019,9 hPa 0,0 l/m 0 min 0 min 117 W/m 14,6 km/h (3 Bft) 95,74 %
15.01.2017 14:06 0,9 C 2,2 C 0,6 C 96 % 15 lf 1019,9 hPa 0,0 l/m 2 min 0 min 151 W/m 16,7 km/h (3 Bft) 92,73 %
15.01.2017 14:08 1,0 C 2,8 C 0,6 C 96 % 14 lf 1019,9 hPa 0,0 l/m 2 min 0 min 144 W/m 16,7 km/h (3 Bft) 95,74 %
15.01.2017 14:10 1,0 C 2,8 C 0,6 C 97 % 15 lf 1019,9 hPa 0,0 l/m 0 min 0 min 126 W/m 10,5 km/h (2 Bft) 97,87 %
15.01.2017 14:12 1,0 C 2,8 C 0,6 C 97 % 14 lf 1019,9 hPa 0,0 l/m 0 min 0 min 122 W/m 12,6 km/h (3 Bft) 97,83 %
15.01.2017 14:14 1,0 C 2,8 C 1,1 C 97 % 14 lf 1020,0 hPa 0,0 l/m 2 min 0 min 153 W/m 10,5 km/h (2 Bft) 97,87 %
15.01.2017 14:16 1,1 C 3,3 C 1,1 C 97 % 14 lf 1020,0 hPa 0,0 l/m 2 min 0 min 191 W/m 14,6 km/h (3 Bft) 93,62 %
15.01.2017 14:18 1,1 C 3,9 C 1,1 C 97 % 14 lf 1020,0 hPa 0,0 l/m 2 min 0 min 195 W/m 23,0 km/h (4 Bft) 95,74 %
15.01.2017 14:20 1,1 C 3,3 C 0,6 C 97 % 14 lf 1020,0 hPa 0,0 l/m 2 min 0 min 156 W/m 16,7 km/h (3 Bft) 95,74 %
15.01.2017 14:22 1,1 C 2,8 C 0,6 C 97 % 13 lf 1020,0 hPa 0,0 l/m 0 min 0 min 124 W/m 16,7 km/h (3 Bft) 89,36 %
15.01.2017 14:24 1,1 C 2,8 C 0,6 C 97 % 14 lf 1020,0 hPa 0,0 l/m 0 min 0 min 98 W/m 16,7 km/h (3 Bft) 91,30 %
15.01.2017 14:26 1,1 C 2,8 C 0,6 C 97 % 13 lf 1019,9 hPa 0,0 l/m 0 min 0 min 102 W/m 12,6 km/h (3 Bft) 95,74 %
15.01.2017 14:28 1,1 C 2,8 C 0,6 C 96 % 13 lf 1019,9 hPa 0,0 l/m 0 min 0 min 115 W/m 14,6 km/h (3 Bft) 95,74 %
15.01.2017 14:30 1,1 C 2,2 C 0,6 C 96 % 14 lf 1019,9 hPa 0,0 l/m 2 min 0 min 130 W/m 12,6 km/h (3 Bft) 95,74 %
15.01.2017 14:32 1,1 C 2,8 C 0,6 C 96 % 14 lf 1020,0 hPa 0,0 l/m 2 min 0 min 128 W/m 12,6 km/h (3 Bft) 95,83 %
15.01.2017 14:34 1,1 C 2,8 C 0,6 C 96 % 14 lf 1019,9 hPa 0,0 l/m 2 min 0 min 131 W/m 16,7 km/h (3 Bft) 95,65 %
15.01.2017 14:36 1,1 C 2,8 C 0,6 C 96 % 13 lf 1020,0 hPa 0,0 l/m 2 min 0 min 122 W/m 16,7 km/h (3 Bft) 94,87 %
15.01.2017 14:38 1,1 C 2,8 C 0,6 C 96 % 13 lf 1020,0 hPa 0,0 l/m 0 min 0 min 118 W/m 14,6 km/h (3 Bft) 95,65 %
15.01.2017 14:40 1,2 C 2,8 C 0,6 C 96 % 13 lf 1019,9 hPa 0,0 l/m 2 min 0 min 129 W/m 12,6 km/h (3 Bft) 93,62 %
15.01.2017 14:42 1,2 C 2,8 C 0,6 C 96 % 13 lf 1019,9 hPa 0,0 l/m 2 min 0 min 145 W/m 12,6 km/h (3 Bft) 95,74 %
15.01.2017 14:44 1,2 C 3,3 C 0,6 C 96 % 12 lf 1019,9 hPa 0,0 l/m 2 min 0 min 166 W/m 16,7 km/h (3 Bft) 95,74 %
15.01.2017 14:46 1,2 C 3,3 C 0,6 C 96 % 13 lf 1020,0 hPa 0,0 l/m 2 min 0 min 152 W/m 16,7 km/h (3 Bft) 93,62 %
15.01.2017 14:48 1,2 C 3,3 C 0,6 C 96 % 12 lf 1020,0 hPa 0,0 l/m 2 min 0 min 144 W/m 16,7 km/h (3 Bft) 95,65 %
15.01.2017 14:50 1,2 C 2,8 C 0,6 C 96 % 12 lf 1020,0 hPa 0,0 l/m 0 min 0 min 104 W/m 12,6 km/h (3 Bft) 93,62 %
15.01.2017 14:52 1,2 C 2,8 C 0,0 C 96 % 12 lf 1020,0 hPa 0,0 l/m 0 min 0 min 100 W/m 12,6 km/h (3 Bft) 95,74 %
15.01.2017 14:54 1,2 C 2,8 C 0,0 C 96 % 11 lf 1020,1 hPa 0,0 l/m 2 min 0 min 114 W/m 18,8 km/h (3 Bft) 91,49 %
15.01.2017 14:56 1,2 C 2,8 C 0,0 C 96 % 12 lf 1020,0 hPa 0,0 l/m 2 min 0 min 143 W/m 16,7 km/h (3 Bft) 95,74 %
15.01.2017 14:58 1,2 C 2,8 C 0,0 C 96 % 12 lf 1020,1 hPa 0,0 l/m 2 min 0 min 116 W/m 8,4 km/h (2 Bft) 95,74 %
15.01.2017 15:00 1,2 C 2,8 C 0,0 C 96 % 10 lf 1020,0 hPa 0,0 l/m 2 min 0 min 160 W/m 14,6 km/h (3 Bft) 97,83 %
15.01.2017 15:02 1,2 C 2,8 C 0,0 C 96 % 11 lf 1020,0 hPa 0,0 l/m 2 min 0 min 117 W/m 14,6 km/h (3 Bft) 93,62 %
15.01.2017 15:04 1,2 C 2,8 C 0,0 C 96 % 9 lf 1019,9 hPa 0,0 l/m 2 min 0 min 122 W/m 10,5 km/h (2 Bft) 97,87 %
15.01.2017 15:06 1,2 C 2,8 C 0,0 C 96 % 9 lf 1019,9 hPa 0,0 l/m 2 min 0 min 163 W/m 16,7 km/h (3 Bft) 96,30 %
15.01.2017 15:08 1,2 C 3,3 C 0,0 C 96 % 9 lf 1019,9 hPa 0,0 l/m 2 min 0 min 132 W/m 14,6 km/h (3 Bft) 100,00 %
15.01.2017 15:10 1,2 C 2,8 C 0,6 C 96 % 9 lf 1020,0 hPa 0,0 l/m 2 min 0 min 132 W/m 14,6 km/h (3 Bft) 97,83 %
15.01.2017 15:12 1,2 C 2,8 C 0,6 C 96 % 9 lf 1020,1 hPa 0,0 l/m 2 min 0 min 112 W/m 12,6 km/h (3 Bft) 97,92 %
15.01.2017 15:14 1,2 C 2,8 C 0,0 C 96 % 7 lf 1020,1 hPa 0,0 l/m 0 min 0 min 91 W/m 12,6 km/h (3 Bft) 100,00 %
15.01.2017 15:16 1,2 C 2,8 C 0,0 C 96 % 7 lf 1020,1 hPa 0,0 l/m 0 min 0 min 80 W/m 14,6 km/h (3 Bft) 100,00 %
15.01.2017 15:18 1,2 C 2,8 C 0,0 C 96 % 7 lf 1020,1 hPa 0,0 l/m 0 min 0 min 61 W/m 6,3 km/h (2 Bft) 100,00 %
15.01.2017 15:20 1,2 C 2,2 C 0,0 C 96 % 7 lf 1020,1 hPa 0,0 l/m 0 min 0 min 60 W/m 8,4 km/h (2 Bft) 95,65 %
15.01.2017 15:22 1,2 C 2,2 C 0,0 C 96 % 6 lf 1020,0 hPa 0,0 l/m 0 min 0 min 60 W/m 12,6 km/h (3 Bft) 97,87 %
15.01.2017 15:24 1,2 C 2,2 C 0,0 C 96 % 6 lf 1020,1 hPa 0,0 l/m 0 min 0 min 59 W/m 12,6 km/h (3 Bft) 100,00 %
15.01.2017 15:26 1,2 C 2,2 C 0,0 C 96 % 6 lf 1020,2 hPa 0,0 l/m 0 min 0 min 70 W/m 12,6 km/h (3 Bft) 100,00 %
15.01.2017 15:28 1,2 C 2,2 C 0,0 C 96 % 5 lf 1020,3 hPa 0,0 l/m 0 min 0 min 73 W/m 10,5 km/h (2 Bft) 100,00 %
15.01.2017 15:30 1,2 C 2,2 C 0,0 C 96 % 5 lf 1020,2 hPa 0,0 l/m 0 min 0 min 63 W/m 16,7 km/h (3 Bft) 97,87 %
15.01.2017 15:32 1,2 C 2,2 C 0,0 C 96 % 5 lf 1020,1 hPa 0,0 l/m 0 min 0 min 63 W/m 12,6 km/h (3 Bft) 97,87 %
15.01.2017 15:34 1,2 C 2,2 C 0,0 C 96 % 4 lf 1020,1 hPa 0,0 l/m 0 min 0 min 56 W/m 12,6 km/h (3 Bft) 93,62 %
15.01.2017 15:36 1,1 C 1,7 C 0,0 C 96 % 4 lf 1020,2 hPa 0,0 l/m 0 min 0 min 52 W/m 14,6 km/h (3 Bft) 97,37 %
15.01.2017 15:38 1,1 C 1,7 C 0,0 C 96 % 4 lf 1020,1 hPa 0,0 l/m 0 min 0 min 45 W/m 18,8 km/h (3 Bft) 97,87 %
15.01.2017 15:40 1,1 C 1,7 C 0,0 C 96 % 4 lf 1020,1 hPa 0,0 l/m 0 min 0 min 50 W/m 18,8 km/h (3 Bft) 97,87 %
15.01.2017 15:42 1,1 C 1,7 C 0,0 C 96 % 4 lf 1020,2 hPa 0,0 l/m 0 min 0 min 61 W/m 16,7 km/h (3 Bft) 97,87 %
15.01.2017 15:44 1,1 C 1,7 C 0,0 C 96 % 4 lf 1020,2 hPa 0,0 l/m 0 min 0 min 64 W/m 16,7 km/h (3 Bft) 93,62 %
15.01.2017 15:46 1,1 C 1,7 C 0,0 C 96 % 3 lf 1020,2 hPa 0,0 l/m 2 min 0 min 66 W/m 14,6 km/h (3 Bft) 97,83 %
15.01.2017 15:48 1,1 C 1,7 C 0,0 C 95 % 3 lf 1020,3 hPa 0,0 l/m 2 min 0 min 64 W/m 18,8 km/h (3 Bft) 95,74 %
15.01.2017 15:50 1,1 C 1,7 C 0,0 C 95 % 3 lf 1020,4 hPa 0,0 l/m 2 min 0 min 65 W/m 18,8 km/h (3 Bft) 95,74 %
15.01.2017 15:52 1,1 C 1,7 C 0,0 C 95 % 3 lf 1020,3 hPa 0,0 l/m 0 min 0 min 59 W/m 12,6 km/h (3 Bft) 95,74 %
15.01.2017 15:54 1,1 C 1,7 C 0,0 C 95 % 3 lf 1020,4 hPa 0,0 l/m 0 min 0 min 50 W/m 12,6 km/h (3 Bft) 97,87 %
15.01.2017 15:56 1,1 C 1,7 C 0,0 C 95 % 3 lf 1020,3 hPa 0,0 l/m 0 min 0 min 43 W/m 12,6 km/h (3 Bft) 95,74 %
15.01.2017 15:58 1,1 C 1,7 C 0,0 C 95 % 2 lf 1020,3 hPa 0,0 l/m 0 min 0 min 37 W/m 14,6 km/h (3 Bft) 97,83 %
15.01.2017 16:00 1,0 C 1,7 C 0,0 C 95 % 2 lf 1020,3 hPa 0,0 l/m 0 min 0 min 34 W/m 12,6 km/h (3 Bft) 89,36 %
15.01.2017 16:02 1,1 C 1,7 C 0,0 C 95 % 2 lf 1020,4 hPa 0,0 l/m 0 min 0 min 32 W/m 12,6 km/h (3 Bft) 95,74 %
15.01.2017 16:04 1,0 C 1,7 C 0,0 C 95 % 2 lf 1020,3 hPa 0,0 l/m 0 min 0 min 32 W/m 14,6 km/h (3 Bft) 95,74 %
15.01.2017 16:06 1,1 C 1,7 C 0,0 C 95 % 2 lf 1020,3 hPa 0,0 l/m 0 min 0 min 32 W/m 10,5 km/h (2 Bft) 95,74 %
15.01.2017 16:08 1,1 C 1,7 C 0,0 C 95 % 1 lf 1020,3 hPa 0,0 l/m 0 min 0 min 29 W/m 8,4 km/h (2 Bft) 91,49 %
15.01.2017 16:10 1,0 C 1,7 C 0,0 C 95 % 1 lf 1020,3 hPa 0,0 l/m 0 min 0 min 28 W/m 16,7 km/h (3 Bft) 97,83 %
15.01.2017 16:12 1,1 C 1,7 C 0,0 C 95 % 1 lf 1020,2 hPa 0,0 l/m 0 min 0 min 27 W/m 16,7 km/h (3 Bft) 97,87 %
15.01.2017 16:14 1,0 C 1,7 C 0,0 C 95 % 1 lf 1020,2 hPa 0,0 l/m 0 min 0 min 25 W/m 18,8 km/h (3 Bft) 97,87 %
15.01.2017 16:16 1,0 C 1,7 C 0,0 C 95 % 1 lf 1020,3 hPa 0,0 l/m 0 min 0 min 23 W/m 14,6 km/h (3 Bft) 93,62 %
15.01.2017 16:18 1,0 C 1,7 C 0,0 C 95 % 1 lf 1020,3 hPa 0,0 l/m 0 min 0 min 21 W/m 16,7 km/h (3 Bft) 95,74 %
15.01.2017 16:20 1,0 C 1,7 C 0,0 C 95 % 1 lf 1020,3 hPa 0,0 l/m 0 min 0 min 18 W/m 14,6 km/h (3 Bft) 95,74 %
15.01.2017 16:22 1,0 C 1,7 C 0,0 C 95 % 0 lf 1020,2 hPa 0,0 l/m 0 min 0 min 16 W/m 12,6 km/h (3 Bft) 100,00 %
15.01.2017 16:24 1,0 C 1,1 C -0,6 C 95 % 0 lf 1020,3 hPa 0,0 l/m 0 min 0 min 15 W/m 16,7 km/h (3 Bft) 93,62 %
15.01.2017 16:26 1,0 C 1,1 C -0,6 C 95 % 0 lf 1020,3 hPa 0,0 l/m 0 min 0 min 14 W/m 16,7 km/h (3 Bft) 95,74 %
15.01.2017 16:28 1,0 C 1,1 C -0,6 C 95 % 0 lf 1020,4 hPa 0,0 l/m 0 min 0 min 14 W/m 12,6 km/h (3 Bft) 100,00 %
15.01.2017 16:30 1,0 C 1,1 C -0,6 C 95 % 0 lf 1020,3 hPa 0,0 l/m 0 min 0 min 14 W/m 12,6 km/h (3 Bft) 95,74 %
15.01.2017 16:32 1,0 C 1,1 C -0,6 C 95 % 0 lf 1020,3 hPa 0,0 l/m 0 min 0 min 14 W/m 10,5 km/h (2 Bft) 97,87 %
15.01.2017 16:34 0,9 C 1,1 C -0,6 C 95 % 0 lf 1020,3 hPa 0,0 l/m 0 min 0 min 14 W/m 8,4 km/h (2 Bft) 93,48 %
15.01.2017 16:36 0,9 C 1,1 C -0,6 C 95 % 0 lf 1020,3 hPa 0,0 l/m 0 min 0 min 12 W/m 10,5 km/h (2 Bft) 92,73 %
15.01.2017 16:38 0,9 C 1,1 C -0,6 C 95 % 0 lf 1020,2 hPa 0,0 l/m 0 min 0 min 12 W/m 8,4 km/h (2 Bft) 93,62 %
15.01.2017 16:40 0,9 C 1,1 C -0,6 C 95 % 0 lf 1020,1 hPa 0,0 l/m 0 min 0 min 12 W/m 12,6 km/h (3 Bft) 91,49 %
15.01.2017 16:42 0,9 C 1,1 C -0,6 C 95 % 0 lf 1020,2 hPa 0,0 l/m 0 min 0 min 11 W/m 10,5 km/h (2 Bft) 95,74 %
15.01.2017 16:44 0,9 C 1,1 C -0,6 C 95 % 0 lf 1020,2 hPa 0,0 l/m 0 min 0 min 11 W/m 8,4 km/h (2 Bft) 95,74 %
15.01.2017 16:46 0,9 C 1,1 C -0,6 C 95 % 0 lf 1020,2 hPa 0,0 l/m 0 min 0 min 11 W/m 8,4 km/h (2 Bft) 93,62 %
15.01.2017 16:48 0,9 C 1,1 C -0,6 C 95 % 0 lf 1020,3 hPa 0,0 l/m 0 min 0 min 9 W/m 10,5 km/h (2 Bft) 89,36 %
15.01.2017 16:50 0,9 C 1,1 C -0,6 C 95 % 0 lf 1020,3 hPa 0,0 l/m 0 min 0 min 9 W/m 8,4 km/h (2 Bft) 93,62 %
15.01.2017 16:52 0,9 C 1,1 C -0,6 C 95 % 0 lf 1020,4 hPa 0,0 l/m 0 min 0 min 7 W/m 6,3 km/h (2 Bft) 92,11 %
15.01.2017 16:54 0,9 C 1,1 C -0,6 C 95 % 0 lf 1020,4 hPa 0,0 l/m 0 min 0 min 7 W/m 6,3 km/h (2 Bft) 93,62 %
15.01.2017 16:56 0,9 C 1,1 C -0,6 C 95 % 0 lf 1020,5 hPa 0,0 l/m 0 min 0 min 7 W/m 10,5 km/h (2 Bft) 91,30 %
15.01.2017 16:58 0,9 C 1,1 C -0,6 C 95 % 0 lf 1020,5 hPa 0,0 l/m 0 min 0 min 6 W/m 4,2 km/h (1 Bft) 91,49 %
15.01.2017 17:00 0,9 C 1,1 C -0,6 C 95 % 0 lf 1020,4 hPa 0,0 l/m 0 min 0 min 5 W/m 6,3 km/h (2 Bft) 93,62 %
15.01.2017 17:02 0,9 C 1,1 C -0,6 C 95 % 0 lf 1020,5 hPa 0,0 l/m 0 min 0 min 5 W/m 4,2 km/h (1 Bft) 93,62 %
15.01.2017 17:04 0,8 C 1,1 C -0,6 C 95 % 0 lf 1020,5 hPa 0,0 l/m 0 min 0 min 5 W/m 6,3 km/h (2 Bft) 91,49 %
15.01.2017 17:06 0,8 C 1,1 C -0,6 C 96 % 0 lf 1020,5 hPa 0,0 l/m 0 min 0 min 5 W/m 8,4 km/h (2 Bft) 90,91 %
15.01.2017 17:08 0,8 C 1,1 C -0,6 C 96 % 0 lf 1020,5 hPa 0,0 l/m 0 min 0 min 4 W/m 8,4 km/h (2 Bft) 91,49 %
15.01.2017 17:10 0,8 C 1,1 C -0,6 C 96 % 0 lf 1020,5 hPa 0,0 l/m 0 min 0 min 0 W/m 6,3 km/h (2 Bft) 93,62 %
15.01.2017 17:12 0,8 C 1,1 C -0,6 C 96 % 0 lf 1020,5 hPa 0,0 l/m 0 min 0 min 0 W/m 8,4 km/h (2 Bft) 93,62 %
15.01.2017 17:14 0,8 C 1,1 C -0,6 C 96 % 0 lf 1020,5 hPa 0,0 l/m 0 min 0 min 0 W/m 8,4 km/h (2 Bft) 93,62 %
15.01.2017 17:16 0,8 C 1,1 C -0,6 C 96 % 0 lf 1020,5 hPa 0,0 l/m 0 min 0 min 0 W/m 8,4 km/h (2 Bft) 91,49 %
15.01.2017 17:18 0,8 C 1,1 C -0,6 C 96 % 0 lf 1020,5 hPa 0,0 l/m 0 min 0 min 0 W/m 10,5 km/h (2 Bft) 93,48 %
15.01.2017 17:20 0,8 C 1,1 C -0,6 C 96 % 0 lf 1020,6 hPa 0,0 l/m 0 min 0 min 0 W/m 14,6 km/h (3 Bft) 95,74 %
15.01.2017 17:22 0,8 C 1,1 C -0,6 C 96 % 0 lf 1020,6 hPa 0,0 l/m 0 min 0 min 0 W/m 10,5 km/h (2 Bft) 93,62 %
15.01.2017 17:24 0,8 C 1,1 C -0,6 C 96 % 0 lf 1020,6 hPa 0,0 l/m 0 min 0 min 0 W/m 6,3 km/h (2 Bft) 95,74 %
15.01.2017 17:26 0,8 C 1,1 C -0,6 C 96 % 0 lf 1020,6 hPa 0,0 l/m 0 min 0 min 0 W/m 4,2 km/h (1 Bft) 91,49 %
15.01.2017 17:28 0,8 C 1,1 C -0,6 C 96 % 0 lf 1020,6 hPa 0,0 l/m 0 min 0 min 0 W/m 6,3 km/h (2 Bft) 93,62 %
15.01.2017 17:30 0,8 C 1,1 C -0,6 C 96 % 0 lf 1020,7 hPa 0,0 l/m 0 min 0 min 0 W/m 8,4 km/h (2 Bft) 95,65 %
15.01.2017 17:32 0,8 C 1,1 C -0,6 C 96 % 0 lf 1020,7 hPa 0,0 l/m 0 min 0 min 0 W/m 6,3 km/h (2 Bft) 100,00 %
15.01.2017 17:34 0,8 C 1,1 C -0,6 C 96 % 0 lf 1020,7 hPa 0,0 l/m 0 min 0 min 0 W/m 6,3 km/h (2 Bft) 100,00 %
15.01.2017 17:36 0,8 C 1,1 C -0,6 C 96 % 0 lf 1020,7 hPa 0,0 l/m 0 min 0 min 0 W/m 6,3 km/h (2 Bft) 100,00 %
15.01.2017 17:38 0,8 C 1,1 C -0,6 C 96 % 0 lf 1020,7 hPa 0,0 l/m 0 min 0 min 0 W/m 6,3 km/h (2 Bft) 97,87 %
15.01.2017 17:40 0,8 C 1,1 C -0,6 C 96 % 0 lf 1020,7 hPa 0,0 l/m 0 min 0 min 0 W/m 4,2 km/h (1 Bft) 100,00 %
15.01.2017 17:42 0,8 C 1,1 C -0,6 C 96 % 0 lf 1020,7 hPa 0,0 l/m 0 min 0 min 0 W/m 6,3 km/h (2 Bft) 97,87 %
15.01.2017 17:44 0,8 C 1,1 C -0,6 C 96 % 0 lf 1020,7 hPa 0,0 l/m 0 min 0 min 0 W/m 4,2 km/h (1 Bft) 97,83 %
15.01.2017 17:46 0,8 C 1,1 C -0,6 C 96 % 0 lf 1020,7 hPa 0,0 l/m 0 min 0 min 0 W/m 4,2 km/h (1 Bft) 95,74 %
15.01.2017 17:48 0,8 C 1,1 C -0,6 C 96 % 0 lf 1020,7 hPa 0,0 l/m 0 min 0 min 0 W/m 2,1 km/h (1 Bft) 100,00 %
15.01.2017 17:50 0,8 C 1,1 C -0,6 C 96 % 0 lf 1020,7 hPa 0,0 l/m 0 min 0 min 0 W/m 0,0 km/h (0 Bft) 100,00 %
15.01.2017 17:52 0,8 C 1,1 C -0,6 C 96 % 0 lf 1020,6 hPa 0,0 l/m 0 min 0 min 0 W/m 6,3 km/h (2 Bft) 100,00 %
15.01.2017 17:54 0,8 C 1,1 C -0,6 C 96 % 0 lf 1020,6 hPa 0,0 l/m 0 min 0 min 0 W/m 4,2 km/h (1 Bft) 95,65 %
15.01.2017 17:56 0,8 C 1,1 C -0,6 C 96 % 0 lf 1020,6 hPa 0,0 l/m 0 min 0 min 0 W/m 4,2 km/h (1 Bft) 100,00 %
15.01.2017 17:58 0,8 C 1,1 C -0,6 C 96 % 0 lf 1020,6 hPa 0,0 l/m 0 min 0 min 0 W/m 6,3 km/h (2 Bft) 97,87 %
15.01.2017 18:00 0,8 C 1,1 C -0,6 C 96 % 0 lf 1020,7 hPa 0,0 l/m 0 min 0 min 0 W/m 6,3 km/h (2 Bft) 95,74 %
15.01.2017 18:02 0,8 C 1,1 C -0,6 C 96 % 0 lf 1020,7 hPa 0,0 l/m 0 min 0 min 0 W/m 4,2 km/h (1 Bft) 97,87 %
15.01.2017 18:04 0,8 C 1,1 C -0,6 C 96 % 0 lf 1020,7 hPa 0,0 l/m 0 min 0 min 0 W/m 4,2 km/h (1 Bft) 95,74 %
15.01.2017 18:06 0,8 C 1,1 C -0,6 C 96 % 0 lf 1020,7 hPa 0,0 l/m 0 min 0 min 0 W/m 6,3 km/h (2 Bft) 100,00 %
15.01.2017 18:08 0,8 C 1,1 C -0,6 C 96 % 0 lf 1020,7 hPa 0,0 l/m 0 min 0 min 0 W/m 4,2 km/h (1 Bft) 100,00 %
15.01.2017 18:10 0,8 C 1,1 C -0,6 C 96 % 0 lf 1020,7 hPa 0,0 l/m 0 min 0 min 0 W/m 8,4 km/h (2 Bft) 97,87 %
15.01.2017 18:12 0,8 C 1,1 C -0,6 C 96 % 0 lf 1020,7 hPa 0,0 l/m 0 min 0 min 0 W/m 6,3 km/h (2 Bft) 100,00 %
15.01.2017 18:14 0,8 C 1,1 C -0,6 C 96 % 0 lf 1020,8 hPa 0,0 l/m 0 min 0 min 0 W/m 4,2 km/h (1 Bft) 97,87 %
15.01.2017 18:16 0,8 C 1,1 C -0,6 C 96 % 0 lf 1020,8 hPa 0,0 l/m 0 min 0 min 0 W/m 2,1 km/h (1 Bft) 95,65 %
15.01.2017 18:18 0,8 C 1,1 C -0,6 C 96 % 0 lf 1020,8 hPa 0,0 l/m 0 min 0 min 0 W/m 4,2 km/h (1 Bft) 93,62 %
15.01.2017 18:20 0,8 C 1,1 C -0,6 C 96 % 0 lf 1020,8 hPa 0,0 l/m 0 min 0 min 0 W/m 4,2 km/h (1 Bft) 100,00 %
15.01.2017 18:22 0,8 C 1,1 C -0,6 C 96 % 0 lf 1020,9 hPa 0,0 l/m 0 min 0 min 0 W/m 2,1 km/h (1 Bft) 97,87 %
15.01.2017 18:24 0,8 C 1,1 C -0,6 C 96 % 0 lf 1020,8 hPa 0,0 l/m 0 min 0 min 0 W/m 4,2 km/h (1 Bft) 100,00 %
15.01.2017 18:26 0,8 C 1,1 C -0,6 C 96 % 0 lf 1020,8 hPa 0,0 l/m 0 min 0 min 0 W/m 4,2 km/h (1 Bft) 95,74 %
15.01.2017 18:28 0,8 C 1,1 C -0,6 C 96 % 0 lf 1020,8 hPa 0,0 l/m 0 min 0 min 0 W/m 0,0 km/h (0 Bft) 97,83 %
15.01.2017 18:30 0,8 C 1,1 C -0,6 C 96 % 0 lf 1020,8 hPa 0,0 l/m 0 min 0 min 0 W/m 6,3 km/h (2 Bft) 100,00 %
15.01.2017 18:32 0,8 C 1,1 C -0,6 C 96 % 0 lf 1020,8 hPa 0,0 l/m 0 min 0 min 0 W/m 4,2 km/h (1 Bft) 97,92 %
15.01.2017 18:34 0,8 C 1,1 C -0,6 C 96 % 0 lf 1020,9 hPa 0,0 l/m 0 min 0 min 0 W/m 4,2 km/h (1 Bft) 97,87 %
15.01.2017 18:36 0,8 C 1,1 C -0,6 C 96 % 0 lf 1020,9 hPa 0,0 l/m 0 min 0 min 0 W/m 4,2 km/h (1 Bft) 98,00 %
15.01.2017 18:38 0,8 C 1,1 C -0,6 C 96 % 0 lf 1020,9 hPa 0,0 l/m 0 min 0 min 0 W/m 6,3 km/h (2 Bft) 95,65 %
15.01.2017 18:40 0,8 C 1,1 C -0,6 C 96 % 0 lf 1020,9 hPa 0,0 l/m 0 min 0 min 0 W/m 4,2 km/h (1 Bft) 93,62 %
15.01.2017 18:42 0,8 C 1,1 C -0,6 C 96 % 0 lf 1021,0 hPa 0,0 l/m 0 min 0 min 0 W/m 6,3 km/h (2 Bft) 97,22 %
15.01.2017 18:44 0,8 C 1,1 C -0,6 C 96 % 0 lf 1021,0 hPa 0,0 l/m 0 min 0 min 0 W/m 4,2 km/h (1 Bft) 97,87 %
15.01.2017 18:46 0,8 C 1,1 C -0,6 C 96 % 0 lf 1021,0 hPa 0,0 l/m 0 min 0 min 0 W/m 6,3 km/h (2 Bft) 97,87 %
15.01.2017 18:48 0,8 C 1,1 C -0,6 C 96 % 0 lf 1021,0 hPa 0,0 l/m 0 min 0 min 0 W/m 6,3 km/h (2 Bft) 97,87 %
15.01.2017 18:50 0,8 C 1,1 C -0,6 C 96 % 0 lf 1021,0 hPa 0,0 l/m 0 min 0 min 0 W/m 4,2 km/h (1 Bft) 95,74 %
15.01.2017 18:52 0,8 C 1,1 C -0,6 C 96 % 0 lf 1021,1 hPa 0,0 l/m 0 min 0 min 0 W/m 6,3 km/h (2 Bft) 95,74 %
15.01.2017 18:54 0,8 C 1,1 C -0,6 C 96 % 0 lf 1021,1 hPa 0,0 l/m 0 min 0 min 0 W/m 0,0 km/h (0 Bft) 95,65 %
15.01.2017 18:56 0,8 C 1,1 C -0,6 C 96 % 0 lf 1021,0 hPa 0,0 l/m 0 min 0 min 0 W/m 0,0 km/h (0 Bft) 93,62 %
15.01.2017 18:58 0,9 C 1,1 C -0,6 C 96 % 0 lf 1021,0 hPa 0,0 l/m 0 min 0 min 0 W/m 0,0 km/h (0 Bft) 93,62 %
15.01.2017 19:00 0,8 C 1,1 C -1,1 C 96 % 0 lf 1021,1 hPa 0,0 l/m 0 min 0 min 0 W/m 0,0 km/h (0 Bft) 95,74 %
15.01.2017 19:02 0,8 C 1,1 C -1,1 C 96 % 1 lf 1021,1 hPa 0,0 l/m 0 min 0 min 0 W/m 0,0 km/h (0 Bft) 97,87 %
15.01.2017 19:04 0,9 C 1,1 C -1,1 C 96 % 1 lf 1021,1 hPa 0,0 l/m 0 min 0 min 0 W/m 6,3 km/h (2 Bft) 95,65 %
15.01.2017 19:06 0,8 C 1,1 C -1,1 C 96 % 1 lf 1021,2 hPa 0,0 l/m 0 min 0 min 0 W/m 6,3 km/h (2 Bft) 92,73 %
15.01.2017 19:08 0,8 C 1,1 C -1,1 C 96 % 1 lf 1021,1 hPa 0,0 l/m 0 min 0 min 0 W/m 2,1 km/h (1 Bft) 93,62 %
15.01.2017 19:10 0,8 C 1,1 C -1,1 C 96 % 1 lf 1021,1 hPa 0,0 l/m 0 min 0 min 0 W/m 2,1 km/h (1 Bft) 87,23 %
15.01.2017 19:12 0,8 C 1,1 C -1,1 C 96 % 1 lf 1021,1 hPa 0,0 l/m 0 min 0 min 0 W/m 0,0 km/h (0 Bft) 91,49 %
15.01.2017 19:14 0,8 C 0,6 C -1,1 C 96 % 1 lf 1021,2 hPa 0,0 l/m 0 min 0 min 0 W/m 0,0 km/h (0 Bft) 91,30 %
15.01.2017 19:16 0,8 C 1,1 C -1,1 C 96 % 1 lf 1021,1 hPa 0,0 l/m 0 min 0 min 0 W/m 0,0 km/h (0 Bft) 89,36 %
15.01.2017 19:18 0,8 C 1,1 C -1,1 C 96 % 1 lf 1021,2 hPa 0,0 l/m 0 min 0 min 0 W/m 0,0 km/h (0 Bft) 95,74 %
15.01.2017 19:20 0,8 C 1,1 C -1,1 C 96 % 1 lf 1021,2 hPa 0,0 l/m 0 min 0 min 0 W/m 0,0 km/h (0 Bft) 91,49 %
15.01.2017 19:22 0,8 C 1,1 C -1,1 C 96 % 1 lf 1021,1 hPa 0,0 l/m 0 min 0 min 0 W/m 0,0 km/h (0 Bft) 91,49 %
15.01.2017 19:24 0,8 C 1,1 C -1,1 C 96 % 1 lf 1021,1 hPa 0,0 l/m 0 min 0 min 0 W/m 0,0 km/h (0 Bft) 93,62 %
15.01.2017 19:26 0,8 C 1,1 C -1,1 C 96 % 1 lf 1021,1 hPa 0,0 l/m 0 min 0 min 0 W/m 0,0 km/h (0 Bft) 93,48 %
15.01.2017 19:28 0,8 C 1,1 C -1,1 C 96 % 1 lf 1021,2 hPa 0,0 l/m 0 min 0 min 0 W/m 0,0 km/h (0 Bft) 97,87 %
15.01.2017 19:30 0,8 C 1,1 C -1,1 C 96 % 1 lf 1021,1 hPa 0,0 l/m 0 min 0 min 0 W/m 0,0 km/h (0 Bft) 97,87 %
15.01.2017 19:32 0,8 C 1,1 C -1,1 C 96 % 1 lf 1021,2 hPa 0,0 l/m 0 min 0 min 0 W/m 0,0 km/h (0 Bft) 95,92 %
15.01.2017 19:34 0,8 C 1,1 C -1,1 C 96 % 1 lf 1021,2 hPa 0,0 l/m 0 min 0 min 0 W/m 0,0 km/h (0 Bft) 95,74 %
15.01.2017 19:36 0,8 C 1,1 C -1,1 C 96 % 1 lf 1021,2 hPa 0,0 l/m 0 min 0 min 0 W/m 0,0 km/h (0 Bft) 94,59 %
15.01.2017 19:38 0,8 C 1,1 C -1,1 C 96 % 1 lf 1021,2 hPa 0,0 l/m 0 min 0 min 0 W/m 0,0 km/h (0 Bft) 95,74 %
15.01.2017 19:40 0,7 C 0,6 C -1,1 C 96 % 1 lf 1021,2 hPa 0,0 l/m 0 min 0 min 0 W/m 0,0 km/h (0 Bft) 95,65 %
15.01.2017 19:42 0,7 C 0,6 C -1,1 C 96 % 1 lf 1021,2 hPa 0,0 l/m 0 min 0 min 0 W/m 0,0 km/h (0 Bft) 100,00 %
15.01.2017 19:44 0,7 C 1,1 C -1,1 C 96 % 1 lf 1021,2 hPa 0,0 l/m 0 min 0 min 0 W/m 0,0 km/h (0 Bft) 95,74 %
15.01.2017 19:46 0,7 C 1,1 C -1,1 C 96 % 1 lf 1021,2 hPa 0,0 l/m 0 min 0 min 0 W/m 0,0 km/h (0 Bft) 97,87 %
15.01.2017 19:48 0,7 C 1,1 C -1,1 C 96 % 1 lf 1021,2 hPa 0,0 l/m 0 min 0 min 0 W/m 0,0 km/h (0 Bft) 97,87 %
15.01.2017 19:50 0,7 C 1,1 C -1,1 C 96 % 1 lf 1021,2 hPa 0,0 l/m 0 min 0 min 0 W/m 0,0 km/h (0 Bft) 95,74 %
15.01.2017 19:52 0,7 C 1,1 C -1,1 C 96 % 1 lf 1021,3 hPa 0,0 l/m 0 min 0 min 0 W/m 0,0 km/h (0 Bft) 100,00 %
15.01.2017 19:54 0,7 C 1,1 C -0,6 C 96 % 1 lf 1021,3 hPa 0,0 l/m 0 min 0 min 0 W/m 0,0 km/h (0 Bft) 100,00 %
15.01.2017 19:56 0,7 C 1,1 C -0,6 C 96 % 1 lf 1021,3 hPa 0,0 l/m 0 min 0 min 0 W/m 0,0 km/h (0 Bft) 97,87 %
15.01.2017 19:58 0,7 C 1,1 C -0,6 C 96 % 1 lf 1021,3 hPa 0,0 l/m 0 min 0 min 0 W/m 0,0 km/h (0 Bft) 97,87 %
15.01.2017 20:00 0,7 C 1,1 C -0,6 C 96 % 1 lf 1021,3 hPa 0,0 l/m 0 min 0 min 0 W/m 0,0 km/h (0 Bft) 97,87 %
15.01.2017 20:02 0,7 C 1,1 C -0,6 C 96 % 1 lf 1021,3 hPa 0,0 l/m 0 min 0 min 0 W/m 0,0 km/h (0 Bft) 100,00 %
15.01.2017 20:04 0,7 C 1,1 C -0,6 C 96 % 1 lf 1021,2 hPa 0,0 l/m 0 min 0 min 0 W/m 0,0 km/h (0 Bft) 100,00 %
15.01.2017 20:06 0,7 C 1,1 C -0,6 C 96 % 1 lf 1021,3 hPa 0,0 l/m 0 min 0 min 0 W/m 0,0 km/h (0 Bft) 100,00 %
15.01.2017 20:08 0,7 C 1,1 C -0,6 C 96 % 1 lf 1021,4 hPa 0,0 l/m 0 min 0 min 0 W/m 0,0 km/h (0 Bft) 97,87 %
15.01.2017 20:10 0,7 C 1,1 C -0,6 C 96 % 1 lf 1021,4 hPa 0,0 l/m 0 min 0 min 0 W/m 0,0 km/h (0 Bft) 100,00 %
15.01.2017 20:12 0,7 C 1,1 C -0,6 C 96 % 1 lf 1021,4 hPa 0,0 l/m 0 min 0 min 0 W/m 0,0 km/h (0 Bft) 95,74 %
15.01.2017 20:14 0,7 C 1,1 C -0,6 C 96 % 1 lf 1021,4 hPa 0,0 l/m 0 min 0 min 0 W/m 0,0 km/h (0 Bft) 95,65 %
15.01.2017 20:15 0,7 C 1,1 C -0,6 C 96 % 1 lf 1021,4 hPa 0,0 l/m 0 min 0 min 0 W/m 0,0 km/h (0 Bft) 95,65 %
15.01.2017 20:16 0,7 C 1,1 C -0,6 C 96 % 1 lf 1021,4 hPa 0,0 l/m 0 min 0 min 0 W/m 0,0 km/h (0 Bft) 100,00 %
15.01.2017 20:17 0,7 C 1,1 C -0,6 C 96 % 1 lf 1021,4 hPa 0,0 l/m 0 min 0 min 0 W/m 0,0 km/h (0 Bft) 100,00 %
15.01.2017 20:18 0,7 C 1,1 C -0,6 C 96 % 1 lf 1021,5 hPa 0,0 l/m 0 min 0 min 0 W/m 0,0 km/h (0 Bft) 95,65 %
15.01.2017 20:19 0,7 C 1,1 C -0,6 C 96 % 1 lf 1021,5 hPa 0,0 l/m 0 min 0 min 0 W/m 0,0 km/h (0 Bft) 100,00 %
15.01.2017 20:20 0,7 C 1,1 C -0,6 C 96 % 1 lf 1021,5 hPa 0,0 l/m 0 min 0 min 0 W/m 0,0 km/h (0 Bft) 95,65 %
15.01.2017 20:21 0,7 C 1,1 C -0,6 C 96 % 1 lf 1021,5 hPa 0,0 l/m 0 min 0 min 0 W/m 0,0 km/h (0 Bft) 100,00 %
15.01.2017 20:22 0,7 C 1,1 C -0,6 C 96 % 1 lf 1021,5 hPa 0,0 l/m 0 min 0 min 0 W/m 0,0 km/h (0 Bft) 95,65 %
15.01.2017 20:23 0,7 C 1,1 C -0,6 C 96 % 1 lf 1021,5 hPa 0,0 l/m 0 min 0 min 0 W/m 0,0 km/h (0 Bft) 100,00 %
15.01.2017 20:28 0,7 C 1,1 C -0,6 C 96 % 1 lf 1021,5 hPa 0,0 l/m 0 min 0 min 0 W/m 0,0 km/h (0 Bft) 97,87 %
15.01.2017 20:30 0,7 C 1,1 C -0,6 C 96 % 1 lf 1021,6 hPa 0,0 l/m 0 min 0 min 0 W/m 0,0 km/h (0 Bft) 97,56 %
15.01.2017 20:32 0,7 C 1,1 C -0,6 C 96 % 1 lf 1021,6 hPa 0,0 l/m 0 min 0 min 0 W/m 0,0 km/h (0 Bft) 97,87 %
15.01.2017 20:34 0,7 C 1,1 C -0,6 C 96 % 1 lf 1021,6 hPa 0,0 l/m 0 min 0 min 0 W/m 0,0 km/h (0 Bft) 96,00 %
15.01.2017 20:36 0,7 C 1,1 C -0,6 C 96 % 1 lf 1021,6 hPa 0,0 l/m 0 min 0 min 0 W/m 0,0 km/h (0 Bft) 94,00 %
15.01.2017 20:38 0,7 C 1,1 C -0,6 C 96 % 1 lf 1021,6 hPa 0,0 l/m 0 min 0 min 0 W/m 0,0 km/h (0 Bft) 93,62 %
15.01.2017 20:40 0,8 C 1,1 C -0,6 C 96 % 1 lf 1021,6 hPa 0,0 l/m 0 min 0 min 0 W/m 0,0 km/h (0 Bft) 94,29 %
15.01.2017 20:42 0,8 C 1,1 C -0,6 C 96 % 1 lf 1021,6 hPa 0,0 l/m 0 min 0 min 0 W/m 0,0 km/h (0 Bft) 94,23 %
15.01.2017 20:44 0,8 C 1,1 C -0,6 C 96 % 1 lf 1021,6 hPa 0,0 l/m 0 min 0 min 0 W/m 0,0 km/h (0 Bft) 97,87 %
15.01.2017 20:46 0,8 C 1,1 C -0,6 C 96 % 1 lf 1021,6 hPa 0,0 l/m 0 min 0 min 0 W/m 0,0 km/h (0 Bft) 95,74 %
15.01.2017 20:48 0,8 C 1,1 C -0,6 C 96 % 1 lf 1021,7 hPa 0,0 l/m 0 min 0 min 0 W/m 0,0 km/h (0 Bft) 96,00 %
15.01.2017 20:50 0,8 C 1,1 C -0,6 C 96 % 1 lf 1021,7 hPa 0,0 l/m 0 min 0 min 0 W/m 0,0 km/h (0 Bft) 95,74 %
15.01.2017 20:52 0,8 C 1,1 C -0,6 C 96 % 1 lf 1021,7 hPa 0,0 l/m 0 min 0 min 0 W/m 0,0 km/h (0 Bft) 97,83 %
15.01.2017 20:54 0,8 C 1,1 C -0,6 C 96 % 1 lf 1021,7 hPa 0,0 l/m 0 min 0 min 0 W/m 0,0 km/h (0 Bft) 94,00 %
15.01.2017 20:56 0,8 C 1,1 C -0,6 C 96 % 1 lf 1021,7 hPa 0,0 l/m 0 min 0 min 0 W/m 0,0 km/h (0 Bft) 97,87 %
15.01.2017 20:58 0,8 C 1,1 C -0,6 C 96 % 1 lf 1021,8 hPa 0,0 l/m 0 min 0 min 0 W/m 0,0 km/h (0 Bft) 95,12 %
15.01.2017 21:00 0,8 C 1,1 C -0,6 C 96 % 1 lf 1021,8 hPa 0,0 l/m 0 min 0 min 0 W/m 0,0 km/h (0 Bft) 96,00 %
15.01.2017 21:02 0,8 C 1,1 C -0,6 C 96 % 1 lf 1021,8 hPa 0,0 l/m 0 min 0 min 0 W/m 0,0 km/h (0 Bft) 94,00 %
15.01.2017 21:04 0,8 C 1,1 C -0,6 C 96 % 1 lf 1021,7 hPa 0,0 l/m 0 min 0 min 0 W/m 0,0 km/h (0 Bft) 97,83 %
15.01.2017 21:06 0,8 C 1,1 C -0,6 C 96 % 1 lf 1021,7 hPa 0,0 l/m 0 min 0 min 0 W/m 0,0 km/h (0 Bft) 97,87 %
15.01.2017 21:08 0,8 C 1,1 C -0,6 C 96 % 1 lf 1021,7 hPa 0,0 l/m 0 min 0 min 0 W/m 0,0 km/h (0 Bft) 95,74 %
15.01.2017 21:10 0,8 C 1,1 C -0,6 C 96 % 1 lf 1021,7 hPa 0,0 l/m 0 min 0 min 0 W/m 0,0 km/h (0 Bft) 93,62 %
15.01.2017 21:12 0,8 C 1,1 C -0,6 C 96 % 1 lf 1021,7 hPa 0,0 l/m 0 min 0 min 0 W/m 0,0 km/h (0 Bft) 95,12 %
15.01.2017 21:14 0,8 C 1,7 C -0,6 C 96 % 1 lf 1021,7 hPa 0,0 l/m 0 min 0 min 0 W/m 0,0 km/h (0 Bft) 90,00 %
15.01.2017 21:16 0,9 C 1,1 C -0,6 C 96 % 1 lf 1021,7 hPa 0,0 l/m 0 min 0 min 0 W/m 0,0 km/h (0 Bft) 91,30 %
15.01.2017 21:18 0,8 C 1,1 C -0,6 C 96 % 1 lf 1021,7 hPa 0,0 l/m 0 min 0 min 0 W/m 0,0 km/h (0 Bft) 92,00 %
15.01.2017 21:20 0,9 C 1,1 C -0,6 C 96 % 1 lf 1021,7 hPa 0,0 l/m 0 min 0 min 0 W/m 0,0 km/h (0 Bft) 90,24 %
15.01.2017 21:22 0,9 C 1,1 C -0,6 C 96 % 1 lf 1021,6 hPa 0,0 l/m 0 min 0 min 0 W/m 0,0 km/h (0 Bft) 95,74 %
15.01.2017 21:24 0,9 C 1,1 C -0,6 C 96 % 1 lf 1021,6 hPa 0,0 l/m 0 min 0 min 0 W/m 0,0 km/h (0 Bft) 90,00 %
15.01.2017 21:26 0,9 C 1,1 C -0,6 C 96 % 1 lf 1021,6 hPa 0,0 l/m 0 min 0 min 0 W/m 0,0 km/h (0 Bft) 89,36 %
15.01.2017 21:28 0,9 C 1,1 C -0,6 C 96 % 1 lf 1021,7 hPa 0,0 l/m 0 min 0 min 0 W/m 0,0 km/h (0 Bft) 93,48 %
15.01.2017 21:30 0,9 C 1,7 C -0,6 C 96 % 1 lf 1021,8 hPa 0,0 l/m 0 min 0 min 0 W/m 0,0 km/h (0 Bft) 91,49 %
15.01.2017 21:32 0,9 C 1,7 C -0,6 C 96 % 1 lf 1021,8 hPa 0,0 l/m 0 min 0 min 0 W/m 0,0 km/h (0 Bft) 93,62 %
15.01.2017 21:34 0,9 C 1,7 C -0,6 C 96 % 1 lf 1021,8 hPa 0,0 l/m 0 min 0 min 0 W/m 0,0 km/h (0 Bft) 91,49 %
15.01.2017 21:36 0,9 C 1,7 C -0,6 C 96 % 1 lf 1021,8 hPa 0,0 l/m 0 min 0 min 0 W/m 0,0 km/h (0 Bft) 95,74 %
15.01.2017 21:38 0,9 C 1,7 C -0,6 C 96 % 1 lf 1021,8 hPa 0,0 l/m 0 min 0 min 0 W/m 0,0 km/h (0 Bft) 93,62 %
15.01.2017 21:40 0,9 C 1,7 C -0,6 C 96 % 1 lf 1021,8 hPa 0,0 l/m 0 min 0 min 0 W/m 0,0 km/h (0 Bft) 89,13 %
15.01.2017 21:42 0,9 C 1,7 C -0,6 C 96 % 1 lf 1021,8 hPa 0,0 l/m 0 min 0 min 0 W/m 0,0 km/h (0 Bft) 90,00 %
15.01.2017 21:44 0,9 C 1,7 C -0,6 C 96 % 1 lf 1021,9 hPa 0,0 l/m 0 min 0 min 0 W/m 0,0 km/h (0 Bft) 89,36 %
15.01.2017 21:46 0,9 C 1,7 C -0,6 C 96 % 1 lf 1021,8 hPa 0,0 l/m 0 min 0 min 0 W/m 0,0 km/h (0 Bft) 93,62 %
15.01.2017 21:48 0,9 C 1,7 C 0,0 C 96 % 1 lf 1021,8 hPa 0,0 l/m 0 min 0 min 0 W/m 0,0 km/h (0 Bft) 93,62 %
15.01.2017 21:50 0,9 C 1,7 C 0,0 C 96 % 0 lf 1021,8 hPa 0,0 l/m 0 min 0 min 0 W/m 0,0 km/h (0 Bft) 95,65 %
15.01.2017 21:52 0,9 C 1,7 C 0,0 C 96 % 0 lf 1021,8 hPa 0,0 l/m 0 min 0 min 0 W/m 0,0 km/h (0 Bft) 97,87 %
15.01.2017 21:54 0,9 C 1,7 C 0,0 C 96 % 0 lf 1021,9 hPa 0,0 l/m 0 min 0 min 0 W/m 0,0 km/h (0 Bft) 97,87 %
15.01.2017 21:56 0,9 C 1,7 C 0,0 C 96 % 0 lf 1021,9 hPa 0,0 l/m 0 min 0 min 0 W/m 0,0 km/h (0 Bft) 100,00 %
15.01.2017 21:58 0,9 C 1,7 C 0,0 C 96 % 0 lf 1021,8 hPa 0,0 l/m 0 min 0 min 0 W/m 0,0 km/h (0 Bft) 100,00 %
15.01.2017 22:00 0,9 C 1,7 C -0,6 C 96 % 0 lf 1021,8 hPa 0,0 l/m 0 min 0 min 0 W/m 0,0 km/h (0 Bft) 97,87 %
15.01.2017 22:02 0,9 C 1,7 C -0,6 C 96 % 0 lf 1021,9 hPa 0,0 l/m 0 min 0 min 0 W/m 0,0 km/h (0 Bft) 90,24 %
15.01.2017 22:04 0,9 C 1,7 C -0,6 C 96 % 0 lf 1021,9 hPa 0,0 l/m 0 min 0 min 0 W/m 0,0 km/h (0 Bft) 97,83 %
15.01.2017 22:06 0,9 C 1,1 C -0,6 C 96 % 1 lf 1021,9 hPa 0,0 l/m 0 min 0 min 0 W/m 0,0 km/h (0 Bft) 98,00 %
15.01.2017 22:08 0,9 C 1,1 C -0,6 C 96 % 1 lf 1021,9 hPa 0,0 l/m 0 min 0 min 0 W/m 0,0 km/h (0 Bft) 100,00 %
15.01.2017 22:10 0,9 C 1,1 C -0,6 C 96 % 1 lf 1021,9 hPa 0,0 l/m 0 min 0 min 0 W/m 0,0 km/h (0 Bft) 97,87 %
15.01.2017 22:12 0,9 C 1,1 C -0,6 C 96 % 1 lf 1022,0 hPa 0,0 l/m 0 min 0 min 0 W/m 0,0 km/h (0 Bft) 97,87 %
15.01.2017 22:14 0,9 C 1,1 C -0,6 C 96 % 1 lf 1021,9 hPa 0,0 l/m 0 min 0 min 0 W/m 4,2 km/h (1 Bft) 100,00 %
15.01.2017 22:16 0,9 C 1,1 C -0,6 C 96 % 1 lf 1021,9 hPa 0,0 l/m 0 min 0 min 0 W/m 4,2 km/h (1 Bft) 97,83 %
15.01.2017 22:18 0,9 C 1,1 C -0,6 C 96 % 1 lf 1021,8 hPa 0,0 l/m 0 min 0 min 0 W/m 6,3 km/h (2 Bft) 95,74 %
15.01.2017 22:20 0,9 C 1,1 C -0,6 C 96 % 1 lf 1021,8 hPa 0,0 l/m 0 min 0 min 0 W/m 6,3 km/h (2 Bft) 100,00 %
15.01.2017 22:22 0,9 C 1,1 C -0,6 C 96 % 1 lf 1021,8 hPa 0,0 l/m 0 min 0 min 0 W/m 6,3 km/h (2 Bft) 97,87 %
15.01.2017 22:24 0,9 C 1,1 C -0,6 C 96 % 1 lf 1021,9 hPa 0,0 l/m 0 min 0 min 0 W/m 6,3 km/h (2 Bft) 95,74 %
15.01.2017 22:26 0,9 C 1,1 C -0,6 C 96 % 1 lf 1021,9 hPa 0,0 l/m 0 min 0 min 0 W/m 4,2 km/h (1 Bft) 100,00 %
15.01.2017 22:28 0,9 C 1,1 C -0,6 C 96 % 1 lf 1021,9 hPa 0,0 l/m 0 min 0 min 0 W/m 4,2 km/h (1 Bft) 97,87 %
15.01.2017 22:30 0,9 C 1,1 C -0,6 C 96 % 1 lf 1021,8 hPa 0,0 l/m 0 min 0 min 0 W/m 8,4 km/h (2 Bft) 100,00 %
15.01.2017 22:32 0,9 C 1,1 C -0,6 C 96 % 1 lf 1021,8 hPa 0,0 l/m 0 min 0 min 0 W/m 6,3 km/h (2 Bft) 100,00 %
15.01.2017 22:34 0,9 C 1,1 C -0,6 C 96 % 1 lf 1021,8 hPa 0,0 l/m 0 min 0 min 0 W/m 6,3 km/h (2 Bft) 100,00 %
15.01.2017 22:36 0,9 C 1,1 C -0,6 C 96 % 1 lf 1021,9 hPa 0,0 l/m 0 min 0 min 0 W/m 6,3 km/h (2 Bft) 93,62 %
15.01.2017 22:38 0,9 C 1,1 C -0,6 C 96 % 1 lf 1021,9 hPa 0,0 l/m 0 min 0 min 0 W/m 6,3 km/h (2 Bft) 100,00 %
15.01.2017 22:40 0,9 C 1,1 C -0,6 C 96 % 1 lf 1021,9 hPa 0,0 l/m 0 min 0 min 0 W/m 8,4 km/h (2 Bft) 97,87 %
15.01.2017 22:42 0,9 C 1,1 C -0,6 C 96 % 1 lf 1022,0 hPa 0,0 l/m 0 min 0 min 0 W/m 6,3 km/h (2 Bft) 100,00 %
15.01.2017 22:44 0,9 C 1,1 C -0,6 C 96 % 1 lf 1022,1 hPa 0,0 l/m 0 min 0 min 0 W/m 6,3 km/h (2 Bft) 100,00 %
15.01.2017 22:46 0,8 C 1,1 C -0,6 C 96 % 1 lf 1022,1 hPa 0,0 l/m 0 min 0 min 0 W/m 0,0 km/h (0 Bft) 100,00 %
15.01.2017 22:48 0,8 C 1,1 C -0,6 C 96 % 1 lf 1022,2 hPa 0,0 l/m 0 min 0 min 0 W/m 0,0 km/h (0 Bft) 100,00 %
15.01.2017 22:50 0,8 C 1,1 C -0,6 C 96 % 1 lf 1022,1 hPa 0,0 l/m 0 min 0 min 0 W/m 0,0 km/h (0 Bft) 100,00 %
15.01.2017 22:52 0,8 C 1,1 C -1,1 C 96 % 1 lf 1022,1 hPa 0,0 l/m 0 min 0 min 0 W/m 0,0 km/h (0 Bft) 93,62 %
15.01.2017 22:54 0,8 C 0,6 C -1,1 C 96 % 1 lf 1022,1 hPa 0,0 l/m 0 min 0 min 0 W/m 0,0 km/h (0 Bft) 100,00 %
15.01.2017 22:56 0,8 C 0,6 C -0,6 C 96 % 1 lf 1022,1 hPa 0,0 l/m 0 min 0 min 0 W/m 4,2 km/h (1 Bft) 100,00 %
15.01.2017 22:58 0,8 C 1,1 C -0,6 C 96 % 1 lf 1022,1 hPa 0,0 l/m 0 min 0 min 0 W/m 4,2 km/h (1 Bft) 100,00 %
15.01.2017 23:00 0,8 C 1,1 C -0,6 C 96 % 1 lf 1022,1 hPa 0,0 l/m 0 min 0 min 0 W/m 4,2 km/h (1 Bft) 97,87 %
15.01.2017 23:02 0,8 C 1,1 C -0,6 C 96 % 1 lf 1022,1 hPa 0,0 l/m 0 min 0 min 0 W/m 4,2 km/h (1 Bft) 95,65 %
15.01.2017 23:04 0,8 C 1,1 C -0,6 C 96 % 1 lf 1022,1 hPa 0,0 l/m 0 min 0 min 0 W/m 4,2 km/h (1 Bft) 100,00 %
15.01.2017 23:06 0,8 C 1,1 C -0,6 C 96 % 1 lf 1022,1 hPa 0,0 l/m 0 min 0 min 0 W/m 6,3 km/h (2 Bft) 100,00 %
15.01.2017 23:08 0,8 C 1,1 C -0,6 C 96 % 1 lf 1022,1 hPa 0,0 l/m 0 min 0 min 0 W/m 2,1 km/h (1 Bft) 98,00 %
15.01.2017 23:10 0,8 C 1,1 C -0,6 C 96 % 1 lf 1022,2 hPa 0,0 l/m 0 min 0 min 0 W/m 0,0 km/h (0 Bft) 98,00 %
15.01.2017 23:12 0,8 C 1,1 C -0,6 C 96 % 1 lf 1022,1 hPa 0,0 l/m 0 min 0 min 0 W/m 2,1 km/h (1 Bft) 97,83 %
15.01.2017 23:14 0,8 C 1,1 C -0,6 C 96 % 1 lf 1022,1 hPa 0,0 l/m 0 min 0 min 0 W/m 0,0 km/h (0 Bft) 97,87 %
15.01.2017 23:16 0,7 C 1,1 C -0,6 C 96 % 1 lf 1022,2 hPa 0,0 l/m 0 min 0 min 0 W/m 0,0 km/h (0 Bft) 95,74 %
15.01.2017 23:18 0,7 C 1,1 C -0,6 C 96 % 1 lf 1022,1 hPa 0,0 l/m 0 min 0 min 0 W/m 0,0 km/h (0 Bft) 97,87 %
15.01.2017 23:20 0,7 C 1,1 C -0,6 C 96 % 1 lf 1022,1 hPa 0,0 l/m 0 min 0 min 0 W/m 2,1 km/h (1 Bft) 97,87 %
15.01.2017 23:22 0,7 C 1,1 C -0,6 C 96 % 1 lf 1022,1 hPa 0,0 l/m 0 min 0 min 0 W/m 4,2 km/h (1 Bft) 93,62 %
15.01.2017 23:24 0,7 C 1,1 C -0,6 C 96 % 1 lf 1022,1 hPa 0,0 l/m 0 min 0 min 0 W/m 4,2 km/h (1 Bft) 95,12 %
15.01.2017 23:26 0,7 C 1,1 C -0,6 C 96 % 1 lf 1022,1 hPa 0,0 l/m 0 min 0 min 0 W/m 6,3 km/h (2 Bft) 89,13 %
15.01.2017 23:28 0,7 C 1,1 C -0,6 C 96 % 1 lf 1022,2 hPa 0,0 l/m 0 min 0 min 0 W/m 4,2 km/h (1 Bft) 97,87 %
15.01.2017 23:30 0,7 C 1,1 C -0,6 C 96 % 1 lf 1022,2 hPa 0,0 l/m 0 min 0 min 0 W/m 2,1 km/h (1 Bft) 97,87 %
15.01.2017 23:32 0,7 C 1,1 C -0,6 C 97 % 1 lf 1022,3 hPa 0,0 l/m 0 min 0 min 0 W/m 2,1 km/h (1 Bft) 94,00 %
15.01.2017 23:34 0,7 C 1,1 C -0,6 C 96 % 1 lf 1022,4 hPa 0,0 l/m 0 min 0 min 0 W/m 0,0 km/h (0 Bft) 95,74 %
15.01.2017 23:36 0,7 C 1,1 C -0,6 C 97 % 1 lf 1022,4 hPa 0,0 l/m 0 min 0 min 0 W/m 0,0 km/h (0 Bft) 95,92 %
15.01.2017 23:38 0,7 C 1,1 C -0,6 C 97 % 1 lf 1022,2 hPa 0,0 l/m 0 min 0 min 0 W/m 0,0 km/h (0 Bft) 95,74 %
15.01.2017 23:40 0,7 C 1,1 C -0,6 C 97 % 1 lf 1022,3 hPa 0,0 l/m 0 min 0 min 0 W/m 6,3 km/h (2 Bft) 93,62 %
15.01.2017 23:42 0,7 C 1,1 C -0,6 C 97 % 1 lf 1022,2 hPa 0,0 l/m 0 min 0 min 0 W/m 6,3 km/h (2 Bft) 97,87 %
15.01.2017 23:44 0,7 C 1,1 C -0,6 C 97 % 1 lf 1022,1 hPa 0,0 l/m 0 min 0 min 0 W/m 6,3 km/h (2 Bft) 95,12 %
15.01.2017 23:46 0,7 C 1,1 C -0,6 C 97 % 1 lf 1022,1 hPa 0,0 l/m 0 min 0 min 0 W/m 6,3 km/h (2 Bft) 95,74 %
15.01.2017 23:48 0,7 C 1,1 C -0,6 C 97 % 1 lf 1022,1 hPa 0,0 l/m 0 min 0 min 0 W/m 6,3 km/h (2 Bft) 94,00 %
15.01.2017 23:50 0,7 C 1,1 C -0,6 C 97 % 1 lf 1022,1 hPa 0,0 l/m 0 min 0 min 0 W/m 6,3 km/h (2 Bft) 89,80 %
15.01.2017 23:52 0,7 C 1,1 C -0,6 C 97 % 1 lf 1022,1 hPa 0,0 l/m 0 min 0 min 0 W/m 6,3 km/h (2 Bft) 97,87 %
15.01.2017 23:54 0,7 C 1,1 C -0,6 C 97 % 1 lf 1022,2 hPa 0,0 l/m 0 min 0 min 0 W/m 4,2 km/h (1 Bft) 93,62 %
15.01.2017 23:56 0,8 C 1,1 C -0,6 C 97 % 1 lf 1022,1 hPa 0,0 l/m 0 min 0 min 0 W/m 6,3 km/h (2 Bft) 93,62 %
15.01.2017 23:58 0,8 C 1,1 C -0,6 C 97 % 1 lf 1022,1 hPa 0,0 l/m 0 min 0 min 0 W/m 4,2 km/h (1 Bft) 95,65 %
_ Min-Zeit 07:36 06:40 07:38 15:48 16:22 00:00 - - - - 17:50 12:04
Minimum _ -1,7 C -2,2 C -4,4 C 95 % 0 lf 1015,7 hPa - - - - 0,0 km/h (0 Bft) 86,11 %
_ Max-Zeit 14:26 11:04 14:14 10:00 00:12 23:34 08:34 09:48 10:56 11:00 01:32 00:00
Maximum _ 1,2 C 6,1 C 1,1 C 98 % 15 lf 1022,4 hPa 0,2 l/m 2 min 2 min 361 W/m 23,0 km/h
W (4 Bft)
100,00 %
Durchschnitt _ 0,1 C 0,5 C -1,5 C 97 % 5 lf 1019,3 hPa #1,2 l/m #3:12 h #10 min. 106 W/m 9,4 km/h (2 Bft) 95,90 %
© 2017 W. Hausmann